Time,TemperatureF,DewpointF,PressureIn,WindDirection,WindDirectionDegrees,WindSpeedMPH,WindSpeedGustMPH,Humidity,HourlyPrecipIn,Conditions,Clouds,dailyrainin,SoftwareType,DateUTC
2013-11-29 00:00:00,29.5,19.2,30.46,NNE,23,1.8,4.3,65,0.00,,,0.00,WUHU216HW,2013-11-29 06:00:00,
2013-11-29 00:01:00,29.5,19.2,30.46,ESE,113,0.0,4.3,65,0.00,,,0.00,WUHU216HW,2013-11-29 06:01:00,
2013-11-29 00:03:00,29.5,19.2,30.46,SE,135,1.8,4.3,65,0.00,,,0.00,WUHU216HW,2013-11-29 06:03:00,
2013-11-29 00:04:00,29.5,19.2,30.46,SSE,158,0.0,4.3,65,0.00,,,0.00,WUHU216HW,2013-11-29 06:04:00,
2013-11-29 00:05:00,29.3,19.0,30.46,ESE,113,2.2,4.3,65,0.00,,,0.00,WUHU216HW,2013-11-29 06:05:00,
2013-11-29 00:07:00,29.3,19.0,30.46,ENE,68,0.0,3.9,65,0.00,,,0.00,WUHU216HW,2013-11-29 06:07:00,
2013-11-29 00:08:00,29.3,19.0,30.46,ESE,113,0.0,3.9,65,0.00,,,0.00,WUHU216HW,2013-11-29 06:08:00,
2013-11-29 00:09:00,29.3,19.0,30.46,NE,45,0.0,3.9,65,0.00,,,0.00,WUHU216HW,2013-11-29 06:09:00,
2013-11-29 00:10:00,29.3,19.4,30.46,ENE,68,4.0,5.0,66,0.00,,,0.00,WUHU216HW,2013-11-29 06:10:00,
2013-11-29 00:11:00,29.3,19.0,30.45,ENE,68,0.4,5.0,65,0.00,,,0.00,WUHU216HW,2013-11-29 06:11:00,
2013-11-29 00:13:00,29.3,19.0,30.45,ESE,113,0.0,5.0,65,0.00,,,0.00,WUHU216HW,2013-11-29 06:13:00,
2013-11-29 00:14:00,29.2,18.8,30.45,East,90,0.0,5.0,65,0.00,,,0.00,WUHU216HW,2013-11-29 06:14:00,
2013-11-29 00:15:00,29.2,18.8,30.45,ENE,68,0.0,5.0,65,0.00,,,0.00,WUHU216HW,2013-11-29 06:15:00,
2013-11-29 00:18:00,29.2,18.8,30.45,NE,45,0.4,5.0,65,0.00,,,0.00,WUHU216HW,2013-11-29 06:18:00,
2013-11-29 00:19:00,29.2,18.8,30.45,ESE,113,0.2,5.0,65,0.00,,,0.00,WUHU216HW,2013-11-29 06:19:00,
2013-11-29 00:20:00,29.2,18.8,30.45,ESE,113,0.0,5.0,65,0.00,,,0.00,WUHU216HW,2013-11-29 06:20:00,
2013-11-29 00:23:00,29.2,18.8,30.45,ESE,113,1.1,3.9,65,0.00,,,0.00,WUHU216HW,2013-11-29 06:23:00,
2013-11-29 00:24:00,29.2,18.8,30.46,ENE,68,2.2,4.3,65,0.00,,,0.00,WUHU216HW,2013-11-29 06:24:00,
2013-11-29 00:25:00,29.2,18.8,30.45,SE,135,1.6,4.3,65,0.00,,,0.00,WUHU216HW,2013-11-29 06:25:00,
2013-11-29 00:28:00,29.0,18.6,30.46,East,90,0.0,4.3,65,0.00,,,0.00,WUHU216HW,2013-11-29 06:28:00,
2013-11-29 00:29:00,29.0,18.6,30.46,ESE,113,0.9,4.3,65,0.00,,,0.00,WUHU216HW,2013-11-29 06:29:00,
2013-11-29 00:30:00,29.0,18.6,30.46,East,90,1.6,4.3,65,0.00,,,0.00,WUHU216HW,2013-11-29 06:30:00,
2013-11-29 00:34:00,29.0,18.6,30.46,ENE,68,1.8,5.0,65,0.00,,,0.00,WUHU216HW,2013-11-29 06:34:00,
2013-11-29 00:35:00,29.2,18.8,30.46,NE,45,0.0,5.0,65,0.00,,,0.00,WUHU216HW,2013-11-29 06:35:00,
2013-11-29 00:36:00,29.2,18.8,30.46,East,90,1.3,5.0,65,0.00,,,0.00,WUHU216HW,2013-11-29 06:36:00,
2013-11-29 00:39:00,29.0,18.6,30.45,East,90,2.0,5.0,65,0.00,,,0.00,WUHU216HW,2013-11-29 06:39:00,
2013-11-29 00:40:00,29.0,18.6,30.45,ESE,113,2.2,5.0,65,0.00,,,0.00,WUHU216HW,2013-11-29 06:40:00,
2013-11-29 00:41:00,29.0,18.6,30.45,ESE,113,0.0,5.0,65,0.00,,,0.00,WUHU216HW,2013-11-29 06:41:00,
2013-11-29 00:44:00,29.0,18.6,30.46,East,90,0.0,3.9,65,0.00,,,0.00,WUHU216HW,2013-11-29 06:44:00,
2013-11-29 00:45:00,29.0,18.6,30.46,East,90,1.8,4.8,65,0.00,,,0.00,WUHU216HW,2013-11-29 06:45:00,
2013-11-29 00:46:00,29.0,18.6,30.45,ENE,68,0.0,4.8,65,0.00,,,0.00,WUHU216HW,2013-11-29 06:46:00,
2013-11-29 00:49:00,29.0,18.6,30.45,NE,45,1.1,4.8,65,0.00,,,0.00,WUHU216HW,2013-11-29 06:49:00,
2013-11-29 00:50:00,29.0,18.6,30.45,NE,45,1.3,4.8,65,0.00,,,0.00,WUHU216HW,2013-11-29 06:50:00,
2013-11-29 00:51:00,29.0,18.6,30.45,ENE,68,0.0,4.8,65,0.00,,,0.00,WUHU216HW,2013-11-29 06:51:00,
2013-11-29 00:54:00,28.8,18.9,30.45,NE,45,1.8,4.8,66,0.00,,,0.00,WUHU216HW,2013-11-29 06:54:00,
2013-11-29 00:55:00,28.8,18.9,30.45,SE,135,1.3,4.8,66,0.00,,,0.00,WUHU216HW,2013-11-29 06:55:00,
2013-11-29 00:56:00,28.8,18.9,30.45,SE,135,1.3,4.8,66,0.00,,,0.00,WUHU216HW,2013-11-29 06:56:00,
2013-11-29 01:00:00,28.8,18.9,30.45,ESE,113,2.2,5.9,66,0.00,,,0.00,WUHU216HW,2013-11-29 07:00:00,
2013-11-29 01:01:00,28.8,18.9,30.45,ESE,113,1.8,5.9,66,0.00,,,0.00,WUHU216HW,2013-11-29 07:01:00,
2013-11-29 01:02:00,28.8,18.9,30.45,NE,45,0.2,5.9,66,0.00,,,0.00,WUHU216HW,2013-11-29 07:02:00,
2013-11-29 01:05:00,28.6,18.7,30.45,NE,45,2.0,5.9,66,0.00,,,0.00,WUHU216HW,2013-11-29 07:05:00,
2013-11-29 01:06:00,28.6,18.7,30.45,East,90,2.2,5.9,66,0.00,,,0.00,WUHU216HW,2013-11-29 07:06:00,
2013-11-29 01:07:00,28.6,18.7,30.45,SE,135,1.1,5.9,66,0.00,,,0.00,WUHU216HW,2013-11-29 07:07:00,
2013-11-29 01:08:00,28.6,18.7,30.45,ESE,113,2.2,4.3,66,0.00,,,0.00,WUHU216HW,2013-11-29 07:08:00,
2013-11-29 01:10:00,28.6,18.7,30.45,ESE,113,3.1,4.3,66,0.00,,,0.00,WUHU216HW,2013-11-29 07:10:00,
2013-11-29 01:11:00,28.6,18.7,30.45,ENE,68,1.8,5.6,66,0.00,,,0.00,WUHU216HW,2013-11-29 07:11:00,
2013-11-29 01:12:00,28.4,18.5,30.45,ESE,113,1.8,5.6,66,0.00,,,0.00,WUHU216HW,2013-11-29 07:12:00,
2013-11-29 01:13:00,28.4,18.5,30.45,East,90,1.3,5.6,66,0.00,,,0.00,WUHU216HW,2013-11-29 07:13:00,
2013-11-29 01:14:00,28.6,18.7,30.45,ESE,113,3.4,5.6,66,0.00,,,0.00,WUHU216HW,2013-11-29 07:14:00,
2013-11-29 01:15:00,28.6,18.7,30.45,ESE,113,2.0,5.6,66,0.00,,,0.00,WUHU216HW,2013-11-29 07:15:00,
2013-11-29 01:17:00,28.4,18.5,30.45,ENE,68,4.5,5.6,66,0.00,,,0.00,WUHU216HW,2013-11-29 07:17:00,
2013-11-29 01:18:00,28.4,18.5,30.45,ESE,113,1.8,7.9,66,0.00,,,0.00,WUHU216HW,2013-11-29 07:18:00,
2013-11-29 01:20:00,28.4,18.5,30.45,East,90,1.1,7.9,66,0.00,,,0.00,WUHU216HW,2013-11-29 07:20:00,
2013-11-29 01:21:00,28.4,18.5,30.45,ESE,113,1.8,7.9,66,0.00,,,0.00,WUHU216HW,2013-11-29 07:21:00,
2013-11-29 01:22:00,28.4,18.5,30.45,ENE,68,2.2,7.9,66,0.00,,,0.00,WUHU216HW,2013-11-29 07:22:00,
2013-11-29 01:23:00,28.4,18.5,30.45,ESE,113,3.6,7.9,66,0.00,,,0.00,WUHU216HW,2013-11-29 07:23:00,
2013-11-29 01:25:00,28.4,18.5,30.45,ENE,68,2.0,7.9,66,0.00,,,0.00,WUHU216HW,2013-11-29 07:25:00,
2013-11-29 01:26:00,28.4,18.5,30.45,ENE,68,2.0,7.9,66,0.00,,,0.00,WUHU216HW,2013-11-29 07:26:00,
2013-11-29 01:27:00,28.4,18.5,30.45,East,90,3.4,4.8,66,0.00,,,0.00,WUHU216HW,2013-11-29 07:27:00,
2013-11-29 01:28:00,28.4,18.5,30.45,SE,135,3.8,4.8,66,0.00,,,0.00,WUHU216HW,2013-11-29 07:28:00,
2013-11-29 01:30:00,28.3,18.4,30.45,ESE,113,1.6,4.8,66,0.00,,,0.00,WUHU216HW,2013-11-29 07:30:00,
2013-11-29 01:31:00,28.3,18.4,30.45,ESE,113,4.0,5.0,66,0.00,,,0.00,WUHU216HW,2013-11-29 07:31:00,
2013-11-29 01:32:00,28.3,18.4,30.45,ESE,113,1.8,5.0,66,0.00,,,0.00,WUHU216HW,2013-11-29 07:32:00,
2013-11-29 01:33:00,28.1,18.5,30.45,ESE,113,3.6,5.0,67,0.00,,,0.00,WUHU216HW,2013-11-29 07:33:00,
2013-11-29 01:35:00,28.1,18.5,30.45,ESE,113,2.5,5.9,67,0.00,,,0.00,WUHU216HW,2013-11-29 07:35:00,
2013-11-29 01:36:00,28.1,18.5,30.45,ESE,113,2.5,5.9,67,0.00,,,0.00,WUHU216HW,2013-11-29 07:36:00,
2013-11-29 01:38:00,28.1,18.5,30.45,East,90,0.4,5.9,67,0.00,,,0.00,WUHU216HW,2013-11-29 07:38:00,
2013-11-29 01:39:00,28.1,18.5,30.46,ESE,113,5.1,6.4,67,0.00,,,0.00,WUHU216HW,2013-11-29 07:39:00,
2013-11-29 01:40:00,28.1,18.5,30.46,East,90,2.5,6.4,67,0.00,,,0.00,WUHU216HW,2013-11-29 07:40:00,
2013-11-29 01:41:00,28.1,18.5,30.46,NE,45,2.9,6.4,67,0.00,,,0.00,WUHU216HW,2013-11-29 07:41:00,
2013-11-29 01:43:00,28.1,18.5,30.46,ESE,113,1.6,6.4,67,0.00,,,0.00,WUHU216HW,2013-11-29 07:43:00,
2013-11-29 01:44:00,28.1,18.5,30.46,East,90,2.5,6.4,67,0.00,,,0.00,WUHU216HW,2013-11-29 07:44:00,
2013-11-29 01:45:00,27.9,18.4,30.46,SE,135,2.2,6.4,67,0.00,,,0.00,WUHU216HW,2013-11-29 07:45:00,
2013-11-29 01:46:00,27.9,18.4,30.46,East,90,3.4,6.4,67,0.00,,,0.00,WUHU216HW,2013-11-29 07:46:00,
2013-11-29 01:48:00,27.9,18.4,30.46,East,90,1.8,6.4,67,0.00,,,0.00,WUHU216HW,2013-11-29 07:48:00,
2013-11-29 01:49:00,27.9,18.0,30.46,SE,135,2.0,6.4,66,0.00,,,0.00,WUHU216HW,2013-11-29 07:49:00,
2013-11-29 01:51:00,27.9,18.7,30.46,East,90,3.4,4.5,68,0.00,,,0.00,WUHU216HW,2013-11-29 07:51:00,
2013-11-29 01:53:00,27.9,18.7,30.46,ESE,113,0.0,4.5,68,0.00,,,0.00,WUHU216HW,2013-11-29 07:53:00,
2013-11-29 01:54:00,27.7,18.5,30.46,SE,135,3.4,4.5,68,0.00,,,0.00,WUHU216HW,2013-11-29 07:54:00,
2013-11-29 01:55:00,27.7,18.2,30.46,East,90,0.0,4.5,67,0.00,,,0.00,WUHU216HW,2013-11-29 07:55:00,
2013-11-29 01:56:00,27.7,18.5,30.46,ESE,113,3.6,4.8,68,0.00,,,0.00,WUHU216HW,2013-11-29 07:56:00,
2013-11-29 01:58:00,27.9,18.7,30.46,East,90,2.5,4.8,68,0.00,,,0.00,WUHU216HW,2013-11-29 07:58:00,
2013-11-29 01:59:00,27.9,18.7,30.46,ESE,113,1.6,4.8,68,0.00,,,0.00,WUHU216HW,2013-11-29 07:59:00,
2013-11-29 02:00:00,27.9,18.7,30.46,SE,135,0.9,4.8,68,0.00,,,0.00,WUHU216HW,2013-11-29 08:00:00,
2013-11-29 02:02:00,27.9,18.4,30.47,ESE,113,3.4,4.8,67,0.00,,,0.00,WUHU216HW,2013-11-29 08:02:00,
2013-11-29 02:03:00,27.9,18.4,30.47,ESE,113,3.4,4.8,67,0.00,,,0.00,WUHU216HW,2013-11-29 08:03:00,
2013-11-29 02:04:00,27.7,18.2,30.47,ESE,113,0.0,4.8,67,0.00,,,0.00,WUHU216HW,2013-11-29 08:04:00,
2013-11-29 02:06:00,27.7,18.2,30.47,SE,135,0.0,4.8,67,0.00,,,0.00,WUHU216HW,2013-11-29 08:06:00,
2013-11-29 02:07:00,27.7,18.2,30.46,East,90,1.8,4.3,67,0.00,,,0.00,WUHU216HW,2013-11-29 08:07:00,
2013-11-29 02:08:00,27.5,18.0,30.46,SE,135,0.7,4.3,67,0.00,,,0.00,WUHU216HW,2013-11-29 08:08:00,
2013-11-29 02:09:00,27.5,18.0,30.47,SSE,158,1.3,4.3,67,0.00,,,0.00,WUHU216HW,2013-11-29 08:09:00,
2013-11-29 02:11:00,27.4,17.8,30.47,SE,135,1.1,4.3,67,0.00,,,0.00,WUHU216HW,2013-11-29 08:11:00,
2013-11-29 02:12:00,27.4,17.8,30.47,ESE,113,0.0,4.3,67,0.00,,,0.00,WUHU216HW,2013-11-29 08:12:00,
2013-11-29 02:13:00,27.4,17.8,30.47,SE,135,0.7,4.3,67,0.00,,,0.00,WUHU216HW,2013-11-29 08:13:00,
2013-11-29 02:14:00,27.4,17.8,30.47,ESE,113,0.0,4.3,67,0.00,,,0.00,WUHU216HW,2013-11-29 08:14:00,
2013-11-29 02:16:00,27.2,17.6,30.47,ESE,113,2.0,4.3,67,0.00,,,0.00,WUHU216HW,2013-11-29 08:16:00,
2013-11-29 02:18:00,27.2,17.6,30.47,ESE,113,2.5,4.3,67,0.00,,,0.00,WUHU216HW,2013-11-29 08:18:00,
2013-11-29 02:19:00,27.0,17.5,30.47,SE,135,1.6,4.3,67,0.00,,,0.00,WUHU216HW,2013-11-29 08:19:00,
2013-11-29 02:20:00,27.0,17.5,30.47,SE,135,1.8,4.3,67,0.00,,,0.00,WUHU216HW,2013-11-29 08:20:00,
2013-11-29 02:22:00,27.0,17.5,30.47,ESE,113,1.1,4.3,67,0.00,,,0.00,WUHU216HW,2013-11-29 08:22:00,
2013-11-29 02:23:00,27.0,17.5,30.47,ESE,113,1.3,4.3,67,0.00,,,0.00,WUHU216HW,2013-11-29 08:23:00,
2013-11-29 02:24:00,27.0,17.8,30.47,ESE,113,0.4,4.3,68,0.00,,,0.00,WUHU216HW,2013-11-29 08:24:00,
2013-11-29 02:25:00,27.0,18.2,30.47,East,90,0.0,4.3,69,0.00,,,0.00,WUHU216HW,2013-11-29 08:25:00,
2013-11-29 02:27:00,27.0,18.2,30.47,ENE,68,0.2,4.3,69,0.00,,,0.00,WUHU216HW,2013-11-29 08:27:00,
2013-11-29 02:29:00,27.0,18.5,30.47,East,90,1.1,2.5,70,0.00,,,0.00,WUHU216HW,2013-11-29 08:29:00,
2013-11-29 02:30:00,27.0,18.5,30.47,ESE,113,2.5,3.6,70,0.00,,,0.00,WUHU216HW,2013-11-29 08:30:00,
2013-11-29 02:32:00,27.0,18.5,30.47,ESE,113,2.5,4.3,70,0.00,,,0.00,WUHU216HW,2013-11-29 08:32:00,
2013-11-29 02:34:00,27.0,18.5,30.47,East,90,0.0,4.3,70,0.00,,,0.00,WUHU216HW,2013-11-29 08:34:00,
2013-11-29 02:35:00,27.2,18.7,30.47,ESE,113,2.2,4.3,70,0.00,,,0.00,WUHU216HW,2013-11-29 08:35:00,
2013-11-29 02:36:00,27.2,18.7,30.47,ESE,113,3.4,4.3,70,0.00,,,0.00,WUHU216HW,2013-11-29 08:36:00,
2013-11-29 02:37:00,27.2,18.7,30.47,ESE,113,1.8,4.3,70,0.00,,,0.00,WUHU216HW,2013-11-29 08:37:00,
2013-11-29 02:39:00,27.4,18.9,30.47,East,90,0.0,4.3,70,0.00,,,0.00,WUHU216HW,2013-11-29 08:39:00,
2013-11-29 02:40:00,27.4,18.9,30.47,ESE,113,2.0,4.3,70,0.00,,,0.00,WUHU216HW,2013-11-29 08:40:00,
2013-11-29 02:41:00,27.4,18.9,30.47,ENE,68,1.1,4.3,70,0.00,,,0.00,WUHU216HW,2013-11-29 08:41:00,
2013-11-29 02:43:00,27.4,18.9,30.47,East,90,3.4,4.3,70,0.00,,,0.00,WUHU216HW,2013-11-29 08:43:00,
2013-11-29 02:44:00,27.4,18.9,30.47,East,90,2.2,4.3,70,0.00,,,0.00,WUHU216HW,2013-11-29 08:44:00,
2013-11-29 02:45:00,27.4,18.9,30.47,ENE,68,2.0,4.3,70,0.00,,,0.00,WUHU216HW,2013-11-29 08:45:00,
2013-11-29 02:46:00,27.4,18.9,30.47,NE,45,2.5,4.5,70,0.00,,,0.00,WUHU216HW,2013-11-29 08:46:00,
2013-11-29 02:48:00,27.4,18.9,30.47,NE,45,0.9,4.5,70,0.00,,,0.00,WUHU216HW,2013-11-29 08:48:00,
2013-11-29 02:49:00,27.4,18.9,30.47,ESE,113,1.1,4.5,70,0.00,,,0.00,WUHU216HW,2013-11-29 08:49:00,
2013-11-29 02:50:00,27.4,18.9,30.47,East,90,2.7,5.0,70,0.00,,,0.00,WUHU216HW,2013-11-29 08:50:00,
2013-11-29 02:51:00,27.4,18.9,30.47,ENE,68,2.7,5.0,70,0.00,,,0.00,WUHU216HW,2013-11-29 08:51:00,
2013-11-29 02:52:00,27.4,18.9,30.47,ESE,113,3.1,5.0,70,0.00,,,0.00,WUHU216HW,2013-11-29 08:52:00,
2013-11-29 02:53:00,27.4,18.9,30.47,ESE,113,3.8,5.0,70,0.00,,,0.00,WUHU216HW,2013-11-29 08:53:00,
2013-11-29 02:54:00,27.4,18.9,30.47,ENE,68,2.0,5.0,70,0.00,,,0.00,WUHU216HW,2013-11-29 08:54:00,
2013-11-29 02:55:00,27.4,18.9,30.47,East,90,3.1,5.0,70,0.00,,,0.00,WUHU216HW,2013-11-29 08:55:00,
2013-11-29 02:56:00,27.4,18.9,30.47,NNE,23,1.1,5.0,70,0.00,,,0.00,WUHU216HW,2013-11-29 08:56:00,
2013-11-29 02:57:00,27.4,18.9,30.47,SE,135,0.9,5.0,70,0.00,,,0.00,WUHU216HW,2013-11-29 08:57:00,
2013-11-29 02:58:00,27.4,18.9,30.46,East,90,2.2,5.0,70,0.00,,,0.00,WUHU216HW,2013-11-29 08:58:00,
2013-11-29 03:00:00,27.4,18.9,30.46,East,90,2.5,4.8,70,0.00,,,0.00,WUHU216HW,2013-11-29 09:00:00,
2013-11-29 03:01:00,27.4,18.9,30.46,ESE,113,1.8,4.8,70,0.00,,,0.00,WUHU216HW,2013-11-29 09:01:00,
2013-11-29 03:02:00,27.2,18.7,30.46,ESE,113,0.0,4.8,70,0.00,,,0.00,WUHU216HW,2013-11-29 09:02:00,
2013-11-29 03:03:00,27.2,18.7,30.46,ESE,113,3.6,4.8,70,0.00,,,0.00,WUHU216HW,2013-11-29 09:03:00,
2013-11-29 03:04:00,27.2,18.7,30.46,NE,45,2.9,4.8,70,0.00,,,0.00,WUHU216HW,2013-11-29 09:04:00,
2013-11-29 03:05:00,27.2,18.7,30.46,East,90,2.2,4.8,70,0.00,,,0.00,WUHU216HW,2013-11-29 09:05:00,
2013-11-29 03:06:00,27.2,18.7,30.46,SSE,158,1.6,4.8,70,0.00,,,0.00,WUHU216HW,2013-11-29 09:06:00,
2013-11-29 03:07:00,27.2,18.7,30.46,ESE,113,2.7,5.0,70,0.00,,,0.00,WUHU216HW,2013-11-29 09:07:00,
2013-11-29 03:08:00,27.2,18.7,30.46,SSE,158,2.7,5.0,70,0.00,,,0.00,WUHU216HW,2013-11-29 09:08:00,
2013-11-29 03:11:00,27.0,18.5,30.46,East,90,0.4,5.0,70,0.00,,,0.00,WUHU216HW,2013-11-29 09:11:00,
2013-11-29 03:12:00,27.0,18.5,30.46,SE,135,2.5,5.0,70,0.00,,,0.00,WUHU216HW,2013-11-29 09:12:00,
2013-11-29 03:13:00,27.0,18.5,30.46,SE,135,1.1,5.0,70,0.00,,,0.00,WUHU216HW,2013-11-29 09:13:00,
2013-11-29 03:14:00,27.0,18.5,30.46,ESE,113,3.6,5.0,70,0.00,,,0.00,WUHU216HW,2013-11-29 09:14:00,
2013-11-29 03:16:00,27.0,18.5,30.46,ENE,68,0.0,5.0,70,0.00,,,0.00,WUHU216HW,2013-11-29 09:16:00,
2013-11-29 03:17:00,27.0,18.5,30.46,ESE,113,3.4,5.0,70,0.00,,,0.00,WUHU216HW,2013-11-29 09:17:00,
2013-11-29 03:18:00,27.0,18.8,30.46,ESE,113,3.4,5.0,71,0.00,,,0.00,WUHU216HW,2013-11-29 09:18:00,
2013-11-29 03:19:00,27.0,18.8,30.46,ESE,113,3.4,5.0,71,0.00,,,0.00,WUHU216HW,2013-11-29 09:19:00,
2013-11-29 03:20:00,27.0,18.5,30.46,ENE,68,4.0,5.0,70,0.00,,,0.00,WUHU216HW,2013-11-29 09:20:00,
2013-11-29 03:22:00,27.0,18.8,30.46,ESE,113,1.6,5.0,71,0.00,,,0.00,WUHU216HW,2013-11-29 09:22:00,
2013-11-29 03:23:00,27.0,18.8,30.46,ESE,113,1.6,5.0,71,0.00,,,0.00,WUHU216HW,2013-11-29 09:23:00,
2013-11-29 03:24:00,27.0,18.5,30.46,SE,135,1.8,5.0,70,0.00,,,0.00,WUHU216HW,2013-11-29 09:24:00,
2013-11-29 03:25:00,27.0,18.5,30.46,East,90,2.7,5.0,70,0.00,,,0.00,WUHU216HW,2013-11-29 09:25:00,
2013-11-29 03:26:00,27.0,18.8,30.46,ESE,113,3.6,5.0,71,0.00,,,0.00,WUHU216HW,2013-11-29 09:26:00,
2013-11-29 03:27:00,27.0,18.8,30.46,ESE,113,1.8,5.0,71,0.00,,,0.00,WUHU216HW,2013-11-29 09:27:00,
2013-11-29 03:28:00,26.8,18.6,30.46,SE,135,4.7,5.9,71,0.00,,,0.00,WUHU216HW,2013-11-29 09:28:00,
2013-11-29 03:29:00,27.0,18.8,30.46,ESE,113,2.5,5.9,71,0.00,,,0.00,WUHU216HW,2013-11-29 09:29:00,
2013-11-29 03:30:00,26.8,18.6,30.46,East,90,1.6,5.9,71,0.00,,,0.00,WUHU216HW,2013-11-29 09:30:00,
2013-11-29 03:32:00,26.8,18.6,30.46,East,90,3.4,5.9,71,0.00,,,0.00,WUHU216HW,2013-11-29 09:32:00,
2013-11-29 03:33:00,26.8,18.6,30.46,East,90,1.8,5.9,71,0.00,,,0.00,WUHU216HW,2013-11-29 09:33:00,
2013-11-29 03:35:00,26.8,18.6,30.46,ESE,113,4.9,6.1,71,0.00,,,0.00,WUHU216HW,2013-11-29 09:35:00,
2013-11-29 03:37:00,27.0,18.8,30.46,SE,135,4.3,6.8,71,0.00,,,0.00,WUHU216HW,2013-11-29 09:37:00,
2013-11-29 03:38:00,27.0,18.8,30.46,ESE,113,2.9,6.8,71,0.00,,,0.00,WUHU216HW,2013-11-29 09:38:00,
2013-11-29 03:40:00,26.8,18.4,30.46,SE,135,2.0,6.8,70,0.00,,,0.00,WUHU216HW,2013-11-29 09:40:00,
2013-11-29 03:41:00,26.8,18.6,30.45,NE,45,0.7,6.8,71,0.00,,,0.00,WUHU216HW,2013-11-29 09:41:00,
2013-11-29 03:42:00,26.8,18.6,30.45,East,90,2.5,6.8,71,0.00,,,0.00,WUHU216HW,2013-11-29 09:42:00,
2013-11-29 03:43:00,26.8,18.6,30.46,ESE,113,0.7,6.8,71,0.00,,,0.00,WUHU216HW,2013-11-29 09:43:00,
2013-11-29 03:44:00,26.8,18.6,30.46,ESE,113,2.2,6.8,71,0.00,,,0.00,WUHU216HW,2013-11-29 09:44:00,
2013-11-29 03:45:00,26.6,18.5,30.46,ESE,113,2.2,6.8,71,0.00,,,0.00,WUHU216HW,2013-11-29 09:45:00,
2013-11-29 03:46:00,26.8,18.6,30.46,SE,135,2.5,5.4,71,0.00,,,0.00,WUHU216HW,2013-11-29 09:46:00,
2013-11-29 03:47:00,26.8,19.0,30.46,SE,135,1.3,4.3,72,0.00,,,0.00,WUHU216HW,2013-11-29 09:47:00,
2013-11-29 03:48:00,26.6,18.8,30.46,SE,135,2.5,4.3,72,0.00,,,0.00,WUHU216HW,2013-11-29 09:48:00,
2013-11-29 03:49:00,26.8,19.0,30.46,ESE,113,3.4,4.8,72,0.00,,,0.00,WUHU216HW,2013-11-29 09:49:00,
2013-11-29 03:51:00,26.6,18.8,30.46,ESE,113,1.3,5.4,72,0.00,,,0.00,WUHU216HW,2013-11-29 09:51:00,
2013-11-29 03:52:00,26.6,18.8,30.46,ESE,113,2.5,5.4,72,0.00,,,0.00,WUHU216HW,2013-11-29 09:52:00,
2013-11-29 03:53:00,26.6,18.5,30.46,ESE,113,2.5,5.4,71,0.00,,,0.00,WUHU216HW,2013-11-29 09:53:00,
2013-11-29 03:54:00,26.6,18.5,30.46,ESE,113,3.8,5.4,71,0.00,,,0.00,WUHU216HW,2013-11-29 09:54:00,
2013-11-29 03:56:00,26.5,18.3,30.46,ESE,113,0.9,5.4,71,0.00,,,0.00,WUHU216HW,2013-11-29 09:56:00,
2013-11-29 03:57:00,26.5,18.6,30.46,ESE,113,3.6,6.1,72,0.00,,,0.00,WUHU216HW,2013-11-29 09:57:00,
2013-11-29 03:58:00,26.5,18.6,30.46,SE,135,2.2,6.1,72,0.00,,,0.00,WUHU216HW,2013-11-29 09:58:00,
2013-11-29 04:00:00,26.5,18.6,30.46,SE,135,2.5,6.1,72,0.00,,,0.00,WUHU216HW,2013-11-29 10:00:00,
2013-11-29 04:01:00,26.5,18.6,30.46,East,90,4.3,6.1,72,0.00,,,0.00,WUHU216HW,2013-11-29 10:01:00,
2013-11-29 04:02:00,26.5,18.6,30.46,SE,135,2.9,6.1,72,0.00,,,0.00,WUHU216HW,2013-11-29 10:02:00,
2013-11-29 04:03:00,26.5,18.6,30.45,ENE,68,1.8,6.1,72,0.00,,,0.00,WUHU216HW,2013-11-29 10:03:00,
2013-11-29 04:04:00,26.5,18.6,30.46,ESE,113,1.6,6.1,72,0.00,,,0.00,WUHU216HW,2013-11-29 10:04:00,
2013-11-29 04:05:00,26.5,18.6,30.46,ESE,113,0.7,6.1,72,0.00,,,0.00,WUHU216HW,2013-11-29 10:05:00,
2013-11-29 04:06:00,26.5,18.6,30.46,ESE,113,1.6,6.1,72,0.00,,,0.00,WUHU216HW,2013-11-29 10:06:00,
2013-11-29 04:08:00,26.5,18.6,30.45,ESE,113,0.9,5.4,72,0.00,,,0.00,WUHU216HW,2013-11-29 10:08:00,
2013-11-29 04:09:00,26.5,18.6,30.45,SE,135,1.3,5.4,72,0.00,,,0.00,WUHU216HW,2013-11-29 10:09:00,
2013-11-29 04:10:00,26.5,18.6,30.46,SE,135,1.8,5.4,72,0.00,,,0.00,WUHU216HW,2013-11-29 10:10:00,
2013-11-29 04:13:00,26.5,18.6,30.46,ESE,113,2.5,5.4,72,0.00,,,0.00,WUHU216HW,2013-11-29 10:13:00,
2013-11-29 04:14:00,26.5,18.6,30.45,SE,135,2.5,5.4,72,0.00,,,0.00,WUHU216HW,2013-11-29 10:14:00,
2013-11-29 04:15:00,26.6,18.8,30.45,SE,135,2.7,5.4,72,0.00,,,0.00,WUHU216HW,2013-11-29 10:15:00,
2013-11-29 04:18:00,26.6,18.8,30.45,SE,135,2.7,5.4,72,0.00,,,0.00,WUHU216HW,2013-11-29 10:18:00,
2013-11-29 04:19:00,26.6,18.8,30.45,ESE,113,2.2,5.4,72,0.00,,,0.00,WUHU216HW,2013-11-29 10:19:00,
2013-11-29 04:20:00,26.6,18.8,30.46,SE,135,2.9,4.8,72,0.00,,,0.00,WUHU216HW,2013-11-29 10:20:00,
2013-11-29 04:21:00,26.6,18.8,30.46,East,90,2.2,4.8,72,0.00,,,0.00,WUHU216HW,2013-11-29 10:21:00,
2013-11-29 04:23:00,26.6,18.8,30.46,ESE,113,2.0,4.8,72,0.00,,,0.00,WUHU216HW,2013-11-29 10:23:00,
2013-11-29 04:24:00,26.6,18.8,30.46,SE,135,2.0,4.8,72,0.00,,,0.00,WUHU216HW,2013-11-29 10:24:00,
2013-11-29 04:25:00,26.6,18.5,30.46,ESE,113,2.7,4.8,71,0.00,,,0.00,WUHU216HW,2013-11-29 10:25:00,
2013-11-29 04:26:00,26.6,18.5,30.46,SSE,158,2.5,4.8,71,0.00,,,0.00,WUHU216HW,2013-11-29 10:26:00,
2013-11-29 04:28:00,26.5,18.3,30.47,SE,135,2.2,4.8,71,0.00,,,0.00,WUHU216HW,2013-11-29 10:28:00,
2013-11-29 04:29:00,26.6,18.8,30.46,SE,135,2.5,4.8,72,0.00,,,0.00,WUHU216HW,2013-11-29 10:29:00,
2013-11-29 04:30:00,26.5,18.6,30.46,ESE,113,2.0,4.5,72,0.00,,,0.00,WUHU216HW,2013-11-29 10:30:00,
2013-11-29 04:31:00,26.6,18.8,30.46,ESE,113,2.5,4.5,72,0.00,,,0.00,WUHU216HW,2013-11-29 10:31:00,
2013-11-29 04:33:00,26.5,18.6,30.46,ENE,68,2.7,4.3,72,0.00,,,0.00,WUHU216HW,2013-11-29 10:33:00,
2013-11-29 04:34:00,26.6,18.8,30.46,ENE,68,2.0,4.3,72,0.00,,,0.00,WUHU216HW,2013-11-29 10:34:00,
2013-11-29 04:35:00,26.6,18.8,30.46,ENE,68,2.9,4.3,72,0.00,,,0.00,WUHU216HW,2013-11-29 10:35:00,
2013-11-29 04:36:00,26.6,18.8,30.46,ESE,113,0.0,4.3,72,0.00,,,0.00,WUHU216HW,2013-11-29 10:36:00,
2013-11-29 04:38:00,26.6,18.8,30.46,ESE,113,2.5,4.3,72,0.00,,,0.00,WUHU216HW,2013-11-29 10:38:00,
2013-11-29 04:40:00,26.6,18.8,30.46,NE,45,1.3,4.8,72,0.00,,,0.00,WUHU216HW,2013-11-29 10:40:00,
2013-11-29 04:41:00,26.6,18.8,30.46,East,90,1.1,4.8,72,0.00,,,0.00,WUHU216HW,2013-11-29 10:41:00,
2013-11-29 04:42:00,26.6,18.8,30.46,ESE,113,0.4,4.8,72,0.00,,,0.00,WUHU216HW,2013-11-29 10:42:00,
2013-11-29 04:43:00,26.6,18.8,30.46,ENE,68,5.4,6.8,72,0.00,,,0.00,WUHU216HW,2013-11-29 10:43:00,
2013-11-29 04:45:00,26.6,18.8,30.46,SE,135,2.2,6.8,72,0.00,,,0.00,WUHU216HW,2013-11-29 10:45:00,
2013-11-29 04:46:00,26.6,18.8,30.46,ESE,113,1.3,6.8,72,0.00,,,0.00,WUHU216HW,2013-11-29 10:46:00,
2013-11-29 04:47:00,26.6,18.8,30.46,ESE,113,2.2,6.8,72,0.00,,,0.00,WUHU216HW,2013-11-29 10:47:00,
2013-11-29 04:48:00,26.6,18.8,30.46,ESE,113,1.8,6.8,72,0.00,,,0.00,WUHU216HW,2013-11-29 10:48:00,
2013-11-29 04:49:00,26.6,18.8,30.46,SE,135,1.3,6.8,72,0.00,,,0.00,WUHU216HW,2013-11-29 10:49:00,
2013-11-29 04:50:00,26.5,18.6,30.46,SE,135,4.0,6.8,72,0.00,,,0.00,WUHU216HW,2013-11-29 10:50:00,
2013-11-29 04:51:00,26.5,18.6,30.46,SE,135,2.0,6.8,72,0.00,,,0.00,WUHU216HW,2013-11-29 10:51:00,
2013-11-29 04:53:00,26.5,18.6,30.46,ESE,113,2.5,5.0,72,0.00,,,0.00,WUHU216HW,2013-11-29 10:53:00,
2013-11-29 04:54:00,26.5,18.6,30.46,East,90,1.8,5.0,72,0.00,,,0.00,WUHU216HW,2013-11-29 10:54:00,
2013-11-29 04:55:00,26.5,18.6,30.46,ESE,113,3.8,5.0,72,0.00,,,0.00,WUHU216HW,2013-11-29 10:55:00,
2013-11-29 04:57:00,26.3,18.5,30.46,ESE,113,3.4,5.0,72,0.00,,,0.00,WUHU216HW,2013-11-29 10:57:00,
2013-11-29 04:59:00,26.3,18.5,30.47,East,90,3.8,5.0,72,0.00,,,0.00,WUHU216HW,2013-11-29 10:59:00,
2013-11-29 05:00:00,26.3,18.5,30.47,East,90,1.1,4.8,72,0.00,,,0.00,WUHU216HW,2013-11-29 11:00:00,
2013-11-29 05:02:00,26.3,18.5,30.47,ESE,113,1.6,4.8,72,0.00,,,0.00,WUHU216HW,2013-11-29 11:02:00,
2013-11-29 05:05:00,26.1,18.3,30.47,SE,135,1.8,4.8,72,0.00,,,0.00,WUHU216HW,2013-11-29 11:05:00,
2013-11-29 05:06:00,25.9,18.1,30.47,SSE,158,2.9,4.8,72,0.00,,,0.00,WUHU216HW,2013-11-29 11:06:00,
2013-11-29 05:07:00,25.9,18.1,30.47,ESE,113,1.6,4.8,72,0.00,,,0.00,WUHU216HW,2013-11-29 11:07:00,
2013-11-29 05:10:00,25.9,18.1,30.47,SE,135,1.6,3.6,72,0.00,,,0.00,WUHU216HW,2013-11-29 11:10:00,
2013-11-29 05:11:00,25.9,18.1,30.47,SE,135,1.8,3.6,72,0.00,,,0.00,WUHU216HW,2013-11-29 11:11:00,
2013-11-29 05:12:00,25.9,18.1,30.47,ESE,113,2.2,3.6,72,0.00,,,0.00,WUHU216HW,2013-11-29 11:12:00,
2013-11-29 05:16:00,25.7,17.9,30.46,ESE,113,2.7,3.6,72,0.00,,,0.00,WUHU216HW,2013-11-29 11:16:00,
2013-11-29 05:18:00,25.9,18.1,30.46,ESE,113,2.9,5.0,72,0.00,,,0.00,WUHU216HW,2013-11-29 11:18:00,
2013-11-29 05:21:00,25.7,17.9,30.46,ESE,113,1.6,5.9,72,0.00,,,0.00,WUHU216HW,2013-11-29 11:21:00,
2013-11-29 05:23:00,25.9,18.4,30.46,ESE,113,1.6,5.9,73,0.00,,,0.00,WUHU216HW,2013-11-29 11:23:00,
2013-11-29 05:26:00,25.9,18.1,30.46,SE,135,1.8,5.9,72,0.00,,,0.00,WUHU216HW,2013-11-29 11:26:00,
2013-11-29 05:28:00,25.9,18.4,30.46,SE,135,2.5,5.9,73,0.00,,,0.00,WUHU216HW,2013-11-29 11:28:00,
2013-11-29 05:31:00,25.9,18.4,30.46,SE,135,3.4,5.0,73,0.00,,,0.00,WUHU216HW,2013-11-29 11:31:00,
2013-11-29 05:33:00,25.9,18.4,30.46,ESE,113,2.5,5.0,73,0.00,,,0.00,WUHU216HW,2013-11-29 11:33:00,
2013-11-29 05:35:00,25.9,18.4,30.46,SE,135,4.0,5.0,73,0.00,,,0.00,WUHU216HW,2013-11-29 11:35:00,
2013-11-29 05:36:00,25.9,18.4,30.46,SE,135,3.1,5.0,73,0.00,,,0.00,WUHU216HW,2013-11-29 11:36:00,
2013-11-29 05:38:00,25.9,18.1,30.46,South,180,1.1,5.0,72,0.00,,,0.00,WUHU216HW,2013-11-29 11:38:00,
2013-11-29 05:40:00,25.9,18.1,30.46,SSE,158,2.2,5.0,72,0.00,,,0.00,WUHU216HW,2013-11-29 11:40:00,
2013-11-29 05:41:00,25.9,18.4,30.46,ESE,113,2.0,5.0,73,0.00,,,0.00,WUHU216HW,2013-11-29 11:41:00,
2013-11-29 05:42:00,25.9,18.4,30.46,SSE,158,0.9,5.0,73,0.00,,,0.00,WUHU216HW,2013-11-29 11:42:00,
2013-11-29 05:43:00,25.9,18.1,30.46,ESE,113,2.2,5.0,72,0.00,,,0.00,WUHU216HW,2013-11-29 11:43:00,
2013-11-29 05:44:00,25.9,18.4,30.46,SE,135,3.1,5.0,73,0.00,,,0.00,WUHU216HW,2013-11-29 11:44:00,
2013-11-29 05:45:00,25.9,18.4,30.46,ESE,113,3.8,5.0,73,0.00,,,0.00,WUHU216HW,2013-11-29 11:45:00,
2013-11-29 05:46:00,25.9,18.4,30.46,ESE,113,4.0,5.0,73,0.00,,,0.00,WUHU216HW,2013-11-29 11:46:00,
2013-11-29 05:47:00,25.9,18.4,30.46,ESE,113,6.0,7.5,73,0.00,,,0.00,WUHU216HW,2013-11-29 11:47:00,
2013-11-29 05:49:00,25.9,18.4,30.46,SE,135,1.8,7.5,73,0.00,,,0.00,WUHU216HW,2013-11-29 11:49:00,
2013-11-29 05:51:00,25.9,18.4,30.46,SE,135,3.8,7.5,73,0.00,,,0.00,WUHU216HW,2013-11-29 11:51:00,
2013-11-29 05:52:00,25.9,18.7,30.46,SE,135,4.0,7.5,74,0.00,,,0.00,WUHU216HW,2013-11-29 11:52:00,
2013-11-29 05:54:00,25.9,18.4,30.45,ESE,113,2.0,7.5,73,0.00,,,0.00,WUHU216HW,2013-11-29 11:54:00,
2013-11-29 05:56:00,25.9,18.4,30.45,ESE,113,5.1,7.5,73,0.00,,,0.00,WUHU216HW,2013-11-29 11:56:00,
2013-11-29 05:57:00,25.9,18.4,30.45,SE,135,2.5,6.4,73,0.00,,,0.00,WUHU216HW,2013-11-29 11:57:00,
2013-11-29 06:00:00,26.1,18.9,30.45,ESE,113,2.7,6.8,74,0.00,,,0.00,WUHU216HW,2013-11-29 12:00:00,
2013-11-29 06:01:00,25.9,18.4,30.46,ESE,113,5.4,6.8,73,0.00,,,0.00,WUHU216HW,2013-11-29 12:01:00,
2013-11-29 06:02:00,25.9,18.4,30.45,ESE,113,2.5,6.8,73,0.00,,,0.00,WUHU216HW,2013-11-29 12:02:00,
2013-11-29 06:05:00,25.9,18.4,30.45,ESE,113,3.4,6.8,73,0.00,,,0.00,WUHU216HW,2013-11-29 12:05:00,
2013-11-29 06:07:00,25.9,18.4,30.46,ESE,113,1.8,6.8,73,0.00,,,0.00,WUHU216HW,2013-11-29 12:07:00,
2013-11-29 06:08:00,25.9,18.4,30.46,ESE,113,2.0,6.8,73,0.00,,,0.00,WUHU216HW,2013-11-29 12:08:00,
2013-11-29 06:10:00,25.7,17.9,30.45,ENE,68,1.8,6.8,72,0.00,,,0.00,WUHU216HW,2013-11-29 12:10:00,
2013-11-29 06:12:00,25.7,18.3,30.45,East,90,3.6,5.4,73,0.00,,,0.00,WUHU216HW,2013-11-29 12:12:00,
2013-11-29 06:13:00,25.7,18.3,30.45,SSE,158,2.2,5.4,73,0.00,,,0.00,WUHU216HW,2013-11-29 12:13:00,
2013-11-29 06:15:00,25.7,18.5,30.45,ESE,113,3.4,5.4,74,0.00,,,0.00,WUHU216HW,2013-11-29 12:15:00,
2013-11-29 06:17:00,25.9,18.7,30.45,SE,135,4.0,5.6,74,0.00,,,0.00,WUHU216HW,2013-11-29 12:17:00,
2013-11-29 06:18:00,25.9,18.7,30.45,ESE,113,1.1,5.6,74,0.00,,,0.00,WUHU216HW,2013-11-29 12:18:00,
2013-11-29 06:19:00,25.9,18.7,30.45,SE,135,1.1,5.6,74,0.00,,,0.00,WUHU216HW,2013-11-29 12:19:00,
2013-11-29 06:20:00,25.9,18.7,30.45,ESE,113,3.1,5.6,74,0.00,,,0.00,WUHU216HW,2013-11-29 12:20:00,
2013-11-29 06:23:00,25.9,18.4,30.46,East,90,0.9,5.6,73,0.00,,,0.00,WUHU216HW,2013-11-29 12:23:00,
2013-11-29 06:24:00,25.9,18.4,30.46,SE,135,2.7,5.6,73,0.00,,,0.00,WUHU216HW,2013-11-29 12:24:00,
2013-11-29 06:25:00,25.7,18.3,30.46,ESE,113,3.4,5.6,73,0.00,,,0.00,WUHU216HW,2013-11-29 12:25:00,
2013-11-29 06:26:00,25.7,18.5,30.46,SE,135,1.8,5.6,74,0.00,,,0.00,WUHU216HW,2013-11-29 12:26:00,
2013-11-29 06:28:00,25.7,18.3,30.46,SE,135,1.1,5.6,73,0.00,,,0.00,WUHU216HW,2013-11-29 12:28:00,
2013-11-29 06:29:00,25.7,18.3,30.46,SE,135,1.1,5.6,73,0.00,,,0.00,WUHU216HW,2013-11-29 12:29:00,
2013-11-29 06:31:00,25.7,18.5,30.46,East,90,0.2,5.0,74,0.00,,,0.00,WUHU216HW,2013-11-29 12:31:00,
2013-11-29 06:33:00,25.7,18.5,30.46,SE,135,2.5,5.0,74,0.00,,,0.00,WUHU216HW,2013-11-29 12:33:00,
2013-11-29 06:34:00,25.7,18.5,30.46,ESE,113,2.5,5.0,74,0.00,,,0.00,WUHU216HW,2013-11-29 12:34:00,
2013-11-29 06:36:00,25.7,18.3,30.45,SE,135,2.2,7.5,73,0.00,,,0.00,WUHU216HW,2013-11-29 12:36:00,
2013-11-29 06:37:00,25.7,18.3,30.45,ESE,113,1.3,7.5,73,0.00,,,0.00,WUHU216HW,2013-11-29 12:37:00,
2013-11-29 06:38:00,25.7,18.5,30.45,SE,135,1.3,7.5,74,0.00,,,0.00,WUHU216HW,2013-11-29 12:38:00,
2013-11-29 06:39:00,25.7,18.5,30.45,SE,135,0.7,7.5,74,0.00,,,0.00,WUHU216HW,2013-11-29 12:39:00,
2013-11-29 06:42:00,25.6,18.1,30.45,ESE,113,3.6,7.5,73,0.00,,,0.00,WUHU216HW,2013-11-29 12:42:00,
2013-11-29 06:43:00,25.6,18.1,30.45,NE,45,0.7,7.5,73,0.00,,,0.00,WUHU216HW,2013-11-29 12:43:00,
2013-11-29 06:44:00,25.6,18.1,30.45,SE,135,1.1,7.5,73,0.00,,,0.00,WUHU216HW,2013-11-29 12:44:00,
2013-11-29 06:47:00,25.6,18.1,30.46,SSE,158,0.4,4.5,73,0.00,,,0.00,WUHU216HW,2013-11-29 12:47:00,
2013-11-29 06:48:00,25.6,18.1,30.46,SE,135,3.1,4.8,73,0.00,,,0.00,WUHU216HW,2013-11-29 12:48:00,
2013-11-29 06:49:00,25.6,18.1,30.46,SE,135,2.9,4.8,73,0.00,,,0.00,WUHU216HW,2013-11-29 12:49:00,
2013-11-29 06:53:00,25.6,18.4,30.46,ESE,113,0.9,5.0,74,0.00,,,0.00,WUHU216HW,2013-11-29 12:53:00,
2013-11-29 06:54:00,25.6,18.4,30.46,SE,135,1.1,5.0,74,0.00,,,0.00,WUHU216HW,2013-11-29 12:54:00,
2013-11-29 06:58:00,25.6,18.7,30.46,East,90,1.8,5.0,75,0.00,,,0.00,WUHU216HW,2013-11-29 12:58:00,
2013-11-29 06:59:00,25.6,18.7,30.46,SE,135,2.0,5.0,75,0.00,,,0.00,WUHU216HW,2013-11-29 12:59:00,
2013-11-29 07:00:00,25.6,18.4,30.46,SE,135,2.7,5.0,74,0.00,,,0.00,WUHU216HW,2013-11-29 13:00:00,
2013-11-29 07:04:00,25.6,18.1,30.46,SE,135,2.7,4.3,73,0.00,,,0.00,WUHU216HW,2013-11-29 13:04:00,
2013-11-29 07:05:00,25.6,18.1,30.46,SE,135,1.3,4.3,73,0.00,,,0.00,WUHU216HW,2013-11-29 13:05:00,
2013-11-29 07:09:00,25.6,18.4,30.46,ESE,113,1.8,4.3,74,0.00,,,0.00,WUHU216HW,2013-11-29 13:09:00,
2013-11-29 07:10:00,25.6,18.4,30.46,ESE,113,4.0,5.0,74,0.00,,,0.00,WUHU216HW,2013-11-29 13:10:00,
2013-11-29 07:11:00,25.4,18.2,30.46,SE,135,2.9,5.0,74,0.00,,,0.00,WUHU216HW,2013-11-29 13:11:00,
2013-11-29 07:14:00,25.4,17.9,30.46,SE,135,2.0,5.0,73,0.00,,,0.00,WUHU216HW,2013-11-29 13:14:00,
2013-11-29 07:15:00,25.4,17.9,30.46,East,90,0.0,5.0,73,0.00,,,0.00,WUHU216HW,2013-11-29 13:15:00,
2013-11-29 07:16:00,25.4,18.2,30.45,SE,135,2.9,5.0,74,0.00,,,0.00,WUHU216HW,2013-11-29 13:16:00,
2013-11-29 07:19:00,25.2,17.7,30.45,ESE,113,1.8,5.0,73,0.00,,,0.00,WUHU216HW,2013-11-29 13:19:00,
2013-11-29 07:20:00,25.2,17.7,30.45,ESE,113,2.5,5.0,73,0.00,,,0.00,WUHU216HW,2013-11-29 13:20:00,
2013-11-29 07:21:00,25.2,17.7,30.45,ESE,113,0.7,4.5,73,0.00,,,0.00,WUHU216HW,2013-11-29 13:21:00,
2013-11-29 07:24:00,25.2,18.0,30.45,ESE,113,0.7,4.5,74,0.00,,,0.00,WUHU216HW,2013-11-29 13:24:00,
2013-11-29 07:25:00,25.2,18.0,30.45,ESE,113,2.5,4.5,74,0.00,,,0.00,WUHU216HW,2013-11-29 13:25:00,
2013-11-29 07:26:00,25.2,18.0,30.45,SSE,158,1.6,4.5,74,0.00,,,0.00,WUHU216HW,2013-11-29 13:26:00,
2013-11-29 07:27:00,25.2,18.0,30.45,SE,135,4.0,5.0,74,0.00,,,0.00,WUHU216HW,2013-11-29 13:27:00,
2013-11-29 07:29:00,25.2,18.0,30.45,ESE,113,0.7,5.0,74,0.00,,,0.00,WUHU216HW,2013-11-29 13:29:00,
2013-11-29 07:30:00,25.2,18.0,30.45,ESE,113,0.7,5.0,74,0.00,,,0.00,WUHU216HW,2013-11-29 13:30:00,
2013-11-29 07:31:00,25.2,18.0,30.45,SSE,158,2.2,5.0,74,0.00,,,0.00,WUHU216HW,2013-11-29 13:31:00,
2013-11-29 07:33:00,25.2,18.0,30.45,SE,135,2.5,5.0,74,0.00,,,0.00,WUHU216HW,2013-11-29 13:33:00,
2013-11-29 07:34:00,25.4,17.9,30.45,SE,135,1.6,5.0,73,0.00,,,0.00,WUHU216HW,2013-11-29 13:34:00,
2013-11-29 07:35:00,25.4,17.9,30.45,SE,135,1.6,5.0,73,0.00,,,0.00,WUHU216HW,2013-11-29 13:35:00,
2013-11-29 07:37:00,25.2,18.0,30.45,ESE,113,2.0,4.3,74,0.00,,,0.00,WUHU216HW,2013-11-29 13:37:00,
2013-11-29 07:39:00,25.4,17.9,30.45,ESE,113,1.3,4.3,73,0.00,,,0.00,WUHU216HW,2013-11-29 13:39:00,
2013-11-29 07:40:00,25.4,18.6,30.45,ESE,113,2.0,4.3,75,0.00,,,0.00,WUHU216HW,2013-11-29 13:40:00,
2013-11-29 07:42:00,25.6,18.7,30.45,SE,135,1.8,4.5,75,0.00,,,0.00,WUHU216HW,2013-11-29 13:42:00,
2013-11-29 07:44:00,25.6,18.7,30.45,East,90,2.5,4.5,75,0.00,,,0.00,WUHU216HW,2013-11-29 13:44:00,
2013-11-29 07:45:00,25.6,18.7,30.45,SSE,158,1.8,4.5,75,0.00,,,0.00,WUHU216HW,2013-11-29 13:45:00,
2013-11-29 07:46:00,25.6,18.7,30.46,ESE,113,2.7,4.5,75,0.00,,,0.00,WUHU216HW,2013-11-29 13:46:00,
2013-11-29 07:48:00,25.7,18.8,30.45,SE,135,3.1,4.5,75,0.00,,,0.00,WUHU216HW,2013-11-29 13:48:00,
2013-11-29 07:50:00,25.9,19.0,30.45,SE,135,2.9,5.0,75,0.00,,,0.00,WUHU216HW,2013-11-29 13:50:00,
2013-11-29 07:51:00,25.9,19.0,30.45,ESE,113,3.1,5.0,75,0.00,,,0.00,WUHU216HW,2013-11-29 13:51:00,
2013-11-29 07:52:00,25.9,19.0,30.45,SE,135,1.8,5.0,75,0.00,,,0.00,WUHU216HW,2013-11-29 13:52:00,
2013-11-29 07:53:00,26.1,19.2,30.45,SE,135,1.1,5.0,75,0.00,,,0.00,WUHU216HW,2013-11-29 13:53:00,
2013-11-29 07:54:00,26.1,18.9,30.45,ESE,113,2.5,5.0,74,0.00,,,0.00,WUHU216HW,2013-11-29 13:54:00,
2013-11-29 07:56:00,26.3,19.1,30.45,NNE,23,2.5,5.0,74,0.00,,,0.00,WUHU216HW,2013-11-29 13:56:00,
2013-11-29 07:58:00,26.3,19.1,30.45,SE,135,0.4,5.0,74,0.00,,,0.00,WUHU216HW,2013-11-29 13:58:00,
2013-11-29 07:59:00,26.3,19.1,30.45,SE,135,2.5,5.0,74,0.00,,,0.00,WUHU216HW,2013-11-29 13:59:00,
2013-11-29 08:00:00,26.3,19.1,30.45,East,90,1.1,4.8,74,0.00,,,0.00,WUHU216HW,2013-11-29 14:00:00,
2013-11-29 08:02:00,26.3,19.1,30.45,SE,135,1.1,3.4,74,0.00,,,0.00,WUHU216HW,2013-11-29 14:02:00,
2013-11-29 08:03:00,26.5,19.3,30.46,SE,135,2.5,3.4,74,0.00,,,0.00,WUHU216HW,2013-11-29 14:03:00,
2013-11-29 08:04:00,26.5,19.3,30.45,ESE,113,1.8,3.4,74,0.00,,,0.00,WUHU216HW,2013-11-29 14:04:00,
2013-11-29 08:05:00,26.6,19.5,30.45,ESE,113,2.7,5.0,74,0.00,,,0.00,WUHU216HW,2013-11-29 14:05:00,
2013-11-29 08:07:00,27.0,19.8,30.45,ESE,113,1.6,5.0,74,0.00,,,0.00,WUHU216HW,2013-11-29 14:07:00,
2013-11-29 08:08:00,27.0,19.8,30.45,East,90,0.0,5.0,74,0.00,,,0.00,WUHU216HW,2013-11-29 14:08:00,
2013-11-29 08:09:00,27.5,20.4,30.45,ENE,68,3.6,5.0,74,0.00,,,0.00,WUHU216HW,2013-11-29 14:09:00,
2013-11-29 08:10:00,27.5,20.4,30.45,ENE,68,3.6,5.0,74,0.00,,,0.00,WUHU216HW,2013-11-29 14:10:00,
2013-11-29 08:12:00,28.3,20.4,30.45,East,90,1.8,5.0,72,0.00,,,0.00,WUHU216HW,2013-11-29 14:12:00,
2013-11-29 08:13:00,28.3,20.4,30.45,ESE,113,2.2,5.0,72,0.00,,,0.00,WUHU216HW,2013-11-29 14:13:00,
2013-11-29 08:15:00,28.6,20.4,30.45,ESE,113,3.6,5.0,71,0.00,,,0.00,WUHU216HW,2013-11-29 14:15:00,
2013-11-29 08:16:00,28.8,20.6,30.45,ESE,113,4.5,5.6,71,0.00,,,0.00,WUHU216HW,2013-11-29 14:16:00,
2013-11-29 08:17:00,29.0,20.8,30.45,ESE,113,2.5,5.9,71,0.00,,,0.00,WUHU216HW,2013-11-29 14:17:00,
2013-11-29 08:18:00,29.2,21.0,30.45,SE,135,4.3,5.9,71,0.00,,,0.00,WUHU216HW,2013-11-29 14:18:00,
2013-11-29 08:20:00,29.5,21.0,30.45,SE,135,2.5,5.9,70,0.00,,,0.00,WUHU216HW,2013-11-29 14:20:00,
2013-11-29 08:21:00,29.5,21.0,30.45,SE,135,1.1,5.9,70,0.00,,,0.00,WUHU216HW,2013-11-29 14:21:00,
2013-11-29 08:22:00,29.7,21.2,30.45,ESE,113,2.0,5.9,70,0.00,,,0.00,WUHU216HW,2013-11-29 14:22:00,
2013-11-29 08:23:00,29.9,21.2,30.45,SE,135,2.5,5.9,70,0.00,,,0.00,WUHU216HW,2013-11-29 14:23:00,
2013-11-29 08:25:00,30.2,21.2,30.45,SE,135,3.4,6.4,69,0.00,,,0.00,WUHU216HW,2013-11-29 14:25:00,
2013-11-29 08:26:00,30.4,21.1,30.45,SE,135,4.9,6.4,68,0.00,,,0.00,WUHU216HW,2013-11-29 14:26:00,
2013-11-29 08:28:00,30.6,21.2,30.45,ESE,113,2.5,6.4,68,0.00,,,0.00,WUHU216HW,2013-11-29 14:28:00,
2013-11-29 08:30:00,30.6,20.9,30.45,ESE,113,2.9,6.4,67,0.00,,,0.00,WUHU216HW,2013-11-29 14:30:00,
2013-11-29 08:31:00,30.6,20.9,30.45,ESE,113,2.2,6.4,67,0.00,,,0.00,WUHU216HW,2013-11-29 14:31:00,
2013-11-29 08:33:00,30.8,21.1,30.45,SE,135,3.8,6.4,67,0.00,,,0.00,WUHU216HW,2013-11-29 14:33:00,
2013-11-29 08:34:00,31.0,20.9,30.45,SE,135,2.9,6.1,66,0.00,,,0.00,WUHU216HW,2013-11-29 14:34:00,
2013-11-29 08:35:00,31.0,21.2,30.46,ESE,113,0.0,6.1,67,0.00,,,0.00,WUHU216HW,2013-11-29 14:35:00,
2013-11-29 08:36:00,31.1,21.4,30.45,ESE,113,1.1,5.9,67,0.00,,,0.00,WUHU216HW,2013-11-29 14:36:00,
2013-11-29 08:38:00,31.5,21.8,30.45,SE,135,1.8,5.9,67,0.00,,,0.00,WUHU216HW,2013-11-29 14:38:00,
2013-11-29 08:39:00,31.7,21.6,30.45,ESE,113,6.0,7.5,66,0.00,,,0.00,WUHU216HW,2013-11-29 14:39:00,
2013-11-29 08:41:00,31.5,21.4,30.45,SSE,158,5.4,8.6,66,0.00,,,0.00,WUHU216HW,2013-11-29 14:41:00,
2013-11-29 08:43:00,31.9,21.8,30.45,ESE,113,2.5,8.6,66,0.00,,,0.00,WUHU216HW,2013-11-29 14:43:00,
2013-11-29 08:44:00,32.0,22.0,30.45,ESE,113,3.8,8.6,66,0.00,,,0.00,WUHU216HW,2013-11-29 14:44:00,
2013-11-29 08:46:00,32.2,22.2,30.45,SE,135,3.6,8.6,66,0.00,,,0.00,WUHU216HW,2013-11-29 14:46:00,
2013-11-29 08:47:00,32.2,22.2,30.45,ESE,113,3.4,8.6,66,0.00,,,0.00,WUHU216HW,2013-11-29 14:47:00,
2013-11-29 08:49:00,32.4,22.0,30.45,East,90,2.2,8.6,65,0.00,,,0.00,WUHU216HW,2013-11-29 14:49:00,
2013-11-29 08:50:00,32.6,22.1,30.45,ESE,113,4.0,8.6,65,0.00,,,0.00,WUHU216HW,2013-11-29 14:50:00,
2013-11-29 08:52:00,32.8,22.2,30.45,SE,135,1.1,7.9,65,0.00,,,0.00,WUHU216HW,2013-11-29 14:52:00,
2013-11-29 08:53:00,32.8,22.2,30.45,SSE,158,2.5,7.9,65,0.00,,,0.00,WUHU216HW,2013-11-29 14:53:00,
2013-11-29 08:54:00,32.9,22.4,30.45,ESE,113,1.1,7.9,65,0.00,,,0.00,WUHU216HW,2013-11-29 14:54:00,
2013-11-29 08:55:00,33.1,22.6,30.45,SE,135,3.1,7.9,65,0.00,,,0.00,WUHU216HW,2013-11-29 14:55:00,
2013-11-29 08:56:00,33.3,22.4,30.45,SSE,158,4.9,8.4,64,0.00,,,0.00,WUHU216HW,2013-11-29 14:56:00,
2013-11-29 08:57:00,33.3,22.8,30.45,SSE,158,3.1,8.4,65,0.00,,,0.00,WUHU216HW,2013-11-29 14:57:00,
2013-11-29 08:58:00,33.5,22.5,30.45,SSE,158,4.0,8.4,64,0.00,,,0.00,WUHU216HW,2013-11-29 14:58:00,
2013-11-29 08:59:00,33.5,22.1,30.45,SE,135,6.7,8.4,63,0.00,,,0.00,WUHU216HW,2013-11-29 14:59:00,
2013-11-29 09:00:00,33.7,22.3,30.45,SE,135,5.4,8.4,63,0.00,,,0.00,WUHU216HW,2013-11-29 15:00:00,
2013-11-29 09:01:00,33.7,22.3,30.45,SE,135,3.1,8.6,63,0.00,,,0.00,WUHU216HW,2013-11-29 15:01:00,
2013-11-29 09:02:00,33.7,22.3,30.45,ESE,113,5.6,8.6,63,0.00,,,0.00,WUHU216HW,2013-11-29 15:02:00,
2013-11-29 09:04:00,33.8,22.1,30.45,ESE,113,4.7,8.6,62,0.00,,,0.00,WUHU216HW,2013-11-29 15:04:00,
2013-11-29 09:05:00,33.8,22.5,30.45,South,180,4.3,8.6,63,0.00,,,0.00,WUHU216HW,2013-11-29 15:05:00,
2013-11-29 09:07:00,33.8,22.1,30.44,SE,135,6.3,9.0,62,0.00,,,0.00,WUHU216HW,2013-11-29 15:07:00,
2013-11-29 09:09:00,34.0,22.7,30.44,SE,135,4.0,10.6,63,0.00,,,0.00,WUHU216HW,2013-11-29 15:09:00,
2013-11-29 09:10:00,34.0,22.3,30.44,ESE,113,2.5,10.6,62,0.00,,,0.00,WUHU216HW,2013-11-29 15:10:00,
2013-11-29 09:12:00,34.2,22.5,30.44,SSE,158,4.0,10.6,62,0.00,,,0.00,WUHU216HW,2013-11-29 15:12:00,
2013-11-29 09:14:00,34.4,22.7,30.44,ESE,113,5.1,10.6,62,0.00,,,0.00,WUHU216HW,2013-11-29 15:14:00,
2013-11-29 09:15:00,34.6,22.9,30.44,SSE,158,3.8,10.6,62,0.00,,,0.00,WUHU216HW,2013-11-29 15:15:00,
2013-11-29 09:17:00,34.7,23.0,30.44,SE,135,3.1,10.6,62,0.00,,,0.00,WUHU216HW,2013-11-29 15:17:00,
2013-11-29 09:19:00,35.1,23.4,30.44,South,180,2.5,7.5,62,0.00,,,0.00,WUHU216HW,2013-11-29 15:19:00,
2013-11-29 09:20:00,35.3,23.6,30.44,SSE,158,2.7,7.5,62,0.00,,,0.00,WUHU216HW,2013-11-29 15:20:00,
2013-11-29 09:21:00,35.3,23.6,30.44,ESE,113,1.8,7.3,62,0.00,,,0.00,WUHU216HW,2013-11-29 15:21:00,
2013-11-29 09:22:00,35.5,23.8,30.44,ESE,113,4.0,7.3,62,0.00,,,0.00,WUHU216HW,2013-11-29 15:22:00,
2013-11-29 09:24:00,35.6,23.6,30.44,SE,135,4.5,7.3,61,0.00,,,0.00,WUHU216HW,2013-11-29 15:24:00,
2013-11-29 09:25:00,35.8,23.8,30.44,ESE,113,4.7,7.3,61,0.00,,,0.00,WUHU216HW,2013-11-29 15:25:00,
2013-11-29 09:26:00,35.8,23.8,30.44,SSE,158,6.0,7.5,61,0.00,,,0.00,WUHU216HW,2013-11-29 15:26:00,
2013-11-29 09:28:00,36.0,24.0,30.44,South,180,2.9,8.4,61,0.00,,,0.00,WUHU216HW,2013-11-29 15:28:00,
2013-11-29 09:29:00,36.2,23.7,30.44,SE,135,6.9,8.6,60,0.00,,,0.00,WUHU216HW,2013-11-29 15:29:00,
2013-11-29 09:30:00,36.4,23.9,30.44,ESE,113,5.8,8.6,60,0.00,,,0.00,WUHU216HW,2013-11-29 15:30:00,
2013-11-29 09:31:00,36.4,23.9,30.44,ESE,113,5.1,8.6,60,0.00,,,0.00,WUHU216HW,2013-11-29 15:31:00,
2013-11-29 09:33:00,36.4,23.9,30.44,SE,135,6.3,9.5,60,0.00,,,0.00,WUHU216HW,2013-11-29 15:33:00,
2013-11-29 09:34:00,36.4,23.9,30.44,ESE,113,6.0,9.5,60,0.00,,,0.00,WUHU216HW,2013-11-29 15:34:00,
2013-11-29 09:36:00,36.4,23.9,30.44,SE,135,4.0,9.5,60,0.00,,,0.00,WUHU216HW,2013-11-29 15:36:00,
2013-11-29 09:38:00,36.4,23.9,30.44,ESE,113,8.3,10.4,60,0.00,,,0.00,WUHU216HW,2013-11-29 15:38:00,
2013-11-29 09:39:00,36.7,24.2,30.44,SSE,158,6.9,10.4,60,0.00,,,0.00,WUHU216HW,2013-11-29 15:39:00,
2013-11-29 09:41:00,36.9,24.4,30.44,SSE,158,2.2,10.4,60,0.00,,,0.00,WUHU216HW,2013-11-29 15:41:00,
2013-11-29 09:43:00,37.1,24.5,30.44,SE,135,2.5,10.4,60,0.00,,,0.00,WUHU216HW,2013-11-29 15:43:00,
2013-11-29 09:45:00,37.4,24.8,30.44,SE,135,5.1,10.4,60,0.00,,,0.00,WUHU216HW,2013-11-29 15:45:00,
2013-11-29 09:46:00,37.6,25.0,30.44,South,180,4.0,10.4,60,0.00,,,0.00,WUHU216HW,2013-11-29 15:46:00,
2013-11-29 09:49:00,38.0,24.9,30.44,SE,135,4.0,8.6,59,0.00,,,0.00,WUHU216HW,2013-11-29 15:49:00,
2013-11-29 09:50:00,38.0,24.5,30.44,SSW,203,6.0,8.6,58,0.00,,,0.00,WUHU216HW,2013-11-29 15:50:00,
2013-11-29 09:52:00,38.0,24.9,30.44,SSE,158,2.7,7.9,59,0.00,,,0.00,WUHU216HW,2013-11-29 15:52:00,
2013-11-29 09:54:00,38.0,24.9,30.44,SSE,158,4.3,7.9,59,0.00,,,0.00,WUHU216HW,2013-11-29 15:54:00,
2013-11-29 09:55:00,38.0,24.5,30.44,SE,135,8.5,10.6,58,0.00,,,0.00,WUHU216HW,2013-11-29 15:55:00,
2013-11-29 09:57:00,37.8,24.8,30.44,East,90,3.8,10.6,59,0.00,,,0.00,WUHU216HW,2013-11-29 15:57:00,
2013-11-29 09:59:00,38.2,25.0,30.44,SE,135,4.0,10.6,59,0.00,,,0.00,WUHU216HW,2013-11-29 15:59:00,
2013-11-29 10:00:00,38.3,25.7,30.44,South,180,3.6,10.6,60,0.00,,,0.00,WUHU216HW,2013-11-29 16:00:00,
2013-11-29 10:02:00,38.9,25.8,30.44,South,180,6.0,10.6,59,0.00,,,0.00,WUHU216HW,2013-11-29 16:02:00,
2013-11-29 10:03:00,38.9,25.8,30.44,SE,135,4.7,10.6,59,0.00,,,0.00,WUHU216HW,2013-11-29 16:03:00,
2013-11-29 10:04:00,39.2,25.6,30.44,SSE,158,4.0,10.6,58,0.00,,,0.00,WUHU216HW,2013-11-29 16:04:00,
2013-11-29 10:05:00,39.2,25.6,30.44,ESE,113,3.8,10.6,58,0.00,,,0.00,WUHU216HW,2013-11-29 16:05:00,
2013-11-29 10:07:00,39.4,25.4,30.44,ESE,113,2.7,8.6,57,0.00,,,0.00,WUHU216HW,2013-11-29 16:07:00,
2013-11-29 10:09:00,39.4,25.4,30.44,SE,135,4.0,8.6,57,0.00,,,0.00,WUHU216HW,2013-11-29 16:09:00,
2013-11-29 10:10:00,39.4,25.4,30.44,ESE,113,4.9,8.6,57,0.00,,,0.00,WUHU216HW,2013-11-29 16:10:00,
2013-11-29 10:12:00,39.6,25.5,30.44,SSE,158,3.1,8.6,57,0.00,,,0.00,WUHU216HW,2013-11-29 16:12:00,
2013-11-29 10:14:00,40.0,25.8,30.44,SE,135,2.5,7.5,57,0.00,,,0.00,WUHU216HW,2013-11-29 16:14:00,
2013-11-29 10:15:00,40.0,25.8,30.44,SE,135,2.5,7.5,57,0.00,,,0.00,WUHU216HW,2013-11-29 16:15:00,
2013-11-29 10:17:00,40.1,25.6,30.44,SE,135,4.0,7.5,56,0.00,,,0.00,WUHU216HW,2013-11-29 16:17:00,
2013-11-29 10:20:00,40.0,25.4,30.44,East,90,4.3,7.9,56,0.00,,,0.00,WUHU216HW,2013-11-29 16:20:00,
2013-11-29 10:22:00,40.1,26.0,30.44,ESE,113,3.6,7.9,57,0.00,,,0.00,WUHU216HW,2013-11-29 16:22:00,
2013-11-29 10:23:00,40.0,25.8,30.44,SE,135,2.9,7.9,57,0.00,,,0.00,WUHU216HW,2013-11-29 16:23:00,
2013-11-29 10:24:00,40.5,25.9,30.44,ESE,113,5.6,7.9,56,0.00,,,0.00,WUHU216HW,2013-11-29 16:24:00,
2013-11-29 10:25:00,40.7,25.7,30.44,SE,135,2.9,7.9,55,0.00,,,0.00,WUHU216HW,2013-11-29 16:25:00,
2013-11-29 10:26:00,40.7,26.1,30.44,ESE,113,3.6,7.9,56,0.00,,,0.00,WUHU216HW,2013-11-29 16:26:00,
2013-11-29 10:27:00,40.7,25.7,30.44,East,90,2.2,7.9,55,0.00,,,0.00,WUHU216HW,2013-11-29 16:27:00,
2013-11-29 10:28:00,40.7,25.7,30.44,SE,135,2.2,7.0,55,0.00,,,0.00,WUHU216HW,2013-11-29 16:28:00,
2013-11-29 10:30:00,40.7,26.1,30.44,SE,135,3.4,7.0,56,0.00,,,0.00,WUHU216HW,2013-11-29 16:30:00,
2013-11-29 10:31:00,40.7,25.2,30.44,SE,135,4.7,7.0,54,0.00,,,0.00,WUHU216HW,2013-11-29 16:31:00,
2013-11-29 10:32:00,40.9,25.8,30.44,SE,135,6.3,9.0,55,0.00,,,0.00,WUHU216HW,2013-11-29 16:32:00,
2013-11-29 10:34:00,41.0,26.5,30.44,SE,135,3.4,9.0,56,0.00,,,0.00,WUHU216HW,2013-11-29 16:34:00,
2013-11-29 10:35:00,41.0,26.0,30.44,SE,135,4.0,9.0,55,0.00,,,0.00,WUHU216HW,2013-11-29 16:35:00,
2013-11-29 10:36:00,41.4,26.4,30.44,SE,135,4.0,9.0,55,0.00,,,0.00,WUHU216HW,2013-11-29 16:36:00,
2013-11-29 10:38:00,41.4,26.4,30.44,SE,135,2.9,9.0,55,0.00,,,0.00,WUHU216HW,2013-11-29 16:38:00,
2013-11-29 10:39:00,41.8,26.3,30.44,SSE,158,5.4,9.0,54,0.00,,,0.00,WUHU216HW,2013-11-29 16:39:00,
2013-11-29 10:40:00,41.8,26.3,30.44,SSE,158,4.7,9.0,54,0.00,,,0.00,WUHU216HW,2013-11-29 16:40:00,
2013-11-29 10:41:00,41.9,26.9,30.44,SSW,203,3.8,9.0,55,0.00,,,0.00,WUHU216HW,2013-11-29 16:41:00,
2013-11-29 10:43:00,42.1,26.7,30.43,SE,135,2.9,7.9,54,0.00,,,0.00,WUHU216HW,2013-11-29 16:43:00,
2013-11-29 10:45:00,42.3,26.7,30.43,South,180,4.7,6.8,54,0.00,,,0.00,WUHU216HW,2013-11-29 16:45:00,
2013-11-29 10:46:00,42.5,26.9,30.44,SSE,158,2.2,6.8,54,0.00,,,0.00,WUHU216HW,2013-11-29 16:46:00,
2013-11-29 10:47:00,42.8,27.3,30.43,South,180,2.5,6.8,54,0.00,,,0.00,WUHU216HW,2013-11-29 16:47:00,
2013-11-29 10:48:00,42.8,27.3,30.43,SE,135,4.7,6.8,54,0.00,,,0.00,WUHU216HW,2013-11-29 16:48:00,
2013-11-29 10:50:00,43.0,27.0,30.43,SSE,158,2.0,7.9,53,0.00,,,0.00,WUHU216HW,2013-11-29 16:50:00,
2013-11-29 10:51:00,43.0,27.0,30.43,ESE,113,2.7,7.9,53,0.00,,,0.00,WUHU216HW,2013-11-29 16:51:00,
2013-11-29 10:52:00,42.8,26.8,30.43,SSE,158,3.4,7.9,53,0.00,,,0.00,WUHU216HW,2013-11-29 16:52:00,
2013-11-29 10:53:00,42.8,26.8,30.43,SE,135,3.4,7.9,53,0.00,,,0.00,WUHU216HW,2013-11-29 16:53:00,
2013-11-29 10:55:00,43.2,27.2,30.43,South,180,6.9,9.5,53,0.00,,,0.00,WUHU216HW,2013-11-29 16:55:00,
2013-11-29 10:56:00,43.2,27.2,30.43,ESE,113,5.8,9.5,53,0.00,,,0.00,WUHU216HW,2013-11-29 16:56:00,
2013-11-29 10:57:00,43.0,27.0,30.43,SE,135,5.6,9.5,53,0.00,,,0.00,WUHU216HW,2013-11-29 16:57:00,
2013-11-29 10:58:00,43.0,27.0,30.43,SE,135,4.5,9.5,53,0.00,,,0.00,WUHU216HW,2013-11-29 16:58:00,
2013-11-29 11:00:00,43.0,27.0,30.43,SSE,158,4.0,9.5,53,0.00,,,0.00,WUHU216HW,2013-11-29 17:00:00,
2013-11-29 11:01:00,43.0,27.0,30.43,SE,135,2.0,9.5,53,0.00,,,0.00,WUHU216HW,2013-11-29 17:01:00,
2013-11-29 11:02:00,43.2,27.2,30.43,SE,135,6.3,9.5,53,0.00,,,0.00,WUHU216HW,2013-11-29 17:02:00,
2013-11-29 11:03:00,43.2,27.2,30.43,South,180,4.7,9.5,53,0.00,,,0.00,WUHU216HW,2013-11-29 17:03:00,
2013-11-29 11:05:00,43.6,27.6,30.42,SE,135,6.0,8.6,53,0.00,,,0.00,WUHU216HW,2013-11-29 17:05:00,
2013-11-29 11:06:00,43.6,27.6,30.42,ESE,113,7.6,9.5,53,0.00,,,0.00,WUHU216HW,2013-11-29 17:06:00,
2013-11-29 11:07:00,43.9,27.9,30.42,SE,135,3.6,13.4,53,0.00,,,0.00,WUHU216HW,2013-11-29 17:07:00,
2013-11-29 11:08:00,43.9,27.9,30.42,SSE,158,5.1,13.4,53,0.00,,,0.00,WUHU216HW,2013-11-29 17:08:00,
2013-11-29 11:10:00,44.1,28.0,30.42,SE,135,4.0,13.4,53,0.00,,,0.00,WUHU216HW,2013-11-29 17:10:00,
2013-11-29 11:11:00,44.1,28.0,30.42,SSW,203,1.6,13.4,53,0.00,,,0.00,WUHU216HW,2013-11-29 17:11:00,
2013-11-29 11:12:00,44.3,28.2,30.42,South,180,4.5,13.4,53,0.00,,,0.00,WUHU216HW,2013-11-29 17:12:00,
2013-11-29 11:13:00,44.5,28.4,30.42,SSW,203,4.0,13.4,53,0.00,,,0.00,WUHU216HW,2013-11-29 17:13:00,
2013-11-29 11:15:00,44.8,28.7,30.42,SE,135,5.6,13.4,53,0.00,,,0.00,WUHU216HW,2013-11-29 17:15:00,
2013-11-29 11:16:00,45.0,28.9,30.42,South,180,9.2,13.4,53,0.00,,,0.00,WUHU216HW,2013-11-29 17:16:00,
2013-11-29 11:18:00,45.0,28.5,30.42,South,180,3.6,11.5,52,0.00,,,0.00,WUHU216HW,2013-11-29 17:18:00,
2013-11-29 11:21:00,45.0,28.0,30.41,SE,135,3.4,11.5,51,0.00,,,0.00,WUHU216HW,2013-11-29 17:21:00,
2013-11-29 11:23:00,45.2,28.5,30.41,SSE,158,2.2,11.5,52,0.00,,,0.00,WUHU216HW,2013-11-29 17:23:00,
2013-11-29 11:26:00,45.2,28.1,30.41,SE,135,2.9,9.8,51,0.00,,,0.00,WUHU216HW,2013-11-29 17:26:00,
2013-11-29 11:27:00,45.4,28.3,30.41,ESE,113,4.7,7.5,51,0.00,,,0.00,WUHU216HW,2013-11-29 17:27:00,
2013-11-29 11:28:00,45.4,28.3,30.41,SE,135,4.5,8.4,51,0.00,,,0.00,WUHU216HW,2013-11-29 17:28:00,
2013-11-29 11:29:00,45.4,27.8,30.41,SE,135,5.6,8.4,50,0.00,,,0.00,WUHU216HW,2013-11-29 17:29:00,
2013-11-29 11:32:00,45.4,28.3,30.40,SE,135,6.9,8.6,51,0.00,,,0.00,WUHU216HW,2013-11-29 17:32:00,
2013-11-29 11:33:00,45.5,28.4,30.40,SE,135,3.8,9.8,51,0.00,,,0.00,WUHU216HW,2013-11-29 17:33:00,
2013-11-29 11:34:00,45.5,28.4,30.40,SE,135,4.7,9.8,51,0.00,,,0.00,WUHU216HW,2013-11-29 17:34:00,
2013-11-29 11:36:00,45.5,28.4,30.40,SSE,158,3.4,9.8,51,0.00,,,0.00,WUHU216HW,2013-11-29 17:36:00,
2013-11-29 11:37:00,45.5,28.4,30.40,SE,135,2.5,9.8,51,0.00,,,0.00,WUHU216HW,2013-11-29 17:37:00,
2013-11-29 11:38:00,45.5,28.4,30.40,SE,135,2.0,9.8,51,0.00,,,0.00,WUHU216HW,2013-11-29 17:38:00,
2013-11-29 11:39:00,45.5,28.4,30.40,SE,135,3.4,9.8,51,0.00,,,0.00,WUHU216HW,2013-11-29 17:39:00,
2013-11-29 11:42:00,46.1,29.3,30.40,SSW,203,4.5,8.4,52,0.00,,,0.00,WUHU216HW,2013-11-29 17:42:00,
2013-11-29 11:43:00,46.1,28.9,30.40,South,180,3.1,7.5,51,0.00,,,0.00,WUHU216HW,2013-11-29 17:43:00,
2013-11-29 11:44:00,46.3,29.1,30.39,SE,135,0.2,7.5,51,0.00,,,0.00,WUHU216HW,2013-11-29 17:44:00,
2013-11-29 11:47:00,46.6,29.0,30.39,South,180,4.7,6.1,50,0.00,,,0.00,WUHU216HW,2013-11-29 17:47:00,
2013-11-29 11:48:00,46.8,29.2,30.39,South,180,5.4,9.5,50,0.00,,,0.00,WUHU216HW,2013-11-29 17:48:00,
2013-11-29 11:49:00,46.8,29.2,30.39,South,180,5.4,9.5,50,0.00,,,0.00,WUHU216HW,2013-11-29 17:49:00,
2013-11-29 11:52:00,47.2,28.9,30.39,SE,135,5.4,9.5,49,0.00,,,0.00,WUHU216HW,2013-11-29 17:52:00,
2013-11-29 11:54:00,47.0,28.2,30.39,SE,135,4.3,9.5,48,0.00,,,0.00,WUHU216HW,2013-11-29 17:54:00,
2013-11-29 11:55:00,46.8,28.6,30.39,ESE,113,4.7,9.5,49,0.00,,,0.00,WUHU216HW,2013-11-29 17:55:00,
2013-11-29 11:57:00,46.8,29.2,30.39,ESE,113,2.2,10.1,50,0.00,,,0.00,WUHU216HW,2013-11-29 17:57:00,
2013-11-29 11:58:00,47.0,29.3,30.39,SSE,158,2.9,10.1,50,0.00,,,0.00,WUHU216HW,2013-11-29 17:58:00,
2013-11-29 11:59:00,47.2,29.4,30.39,ESE,113,2.9,10.1,50,0.00,,,0.00,WUHU216HW,2013-11-29 17:59:00,
2013-11-29 12:00:00,47.2,29.4,30.38,SE,135,3.4,10.1,50,0.00,,,0.00,WUHU216HW,2013-11-29 18:00:00,
2013-11-29 12:02:00,47.5,29.3,30.38,SSE,158,4.5,10.1,49,0.00,,,0.00,WUHU216HW,2013-11-29 18:02:00,
2013-11-29 12:04:00,47.5,29.3,30.38,SSE,158,0.0,10.1,49,0.00,,,0.00,WUHU216HW,2013-11-29 18:04:00,
2013-11-29 12:05:00,47.5,29.3,30.38,SE,135,4.5,10.1,49,0.00,,,0.00,WUHU216HW,2013-11-29 18:05:00,
2013-11-29 12:08:00,47.9,29.5,30.38,SSW,203,2.7,9.0,49,0.00,,,0.00,WUHU216HW,2013-11-29 18:08:00,
2013-11-29 12:09:00,47.9,29.5,30.38,SSE,158,7.4,9.3,49,0.00,,,0.00,WUHU216HW,2013-11-29 18:09:00,
2013-11-29 12:10:00,47.9,29.5,30.38,SSE,158,7.6,10.6,49,0.00,,,0.00,WUHU216HW,2013-11-29 18:10:00,
2013-11-29 12:13:00,47.9,29.0,30.38,SE,135,2.5,10.6,48,0.00,,,0.00,WUHU216HW,2013-11-29 18:13:00,
2013-11-29 12:14:00,47.9,29.0,30.38,ESE,113,5.1,10.6,48,0.00,,,0.00,WUHU216HW,2013-11-29 18:14:00,
2013-11-29 12:15:00,47.9,29.0,30.38,ESE,113,4.0,10.6,48,0.00,,,0.00,WUHU216HW,2013-11-29 18:15:00,
2013-11-29 12:16:00,47.9,29.0,30.38,SE,135,2.7,10.6,48,0.00,,,0.00,WUHU216HW,2013-11-29 18:16:00,
2013-11-29 12:18:00,47.9,29.5,30.37,SE,135,4.7,10.6,49,0.00,,,0.00,WUHU216HW,2013-11-29 18:18:00,
2013-11-29 12:19:00,47.9,29.5,30.37,SE,135,2.5,10.6,49,0.00,,,0.00,WUHU216HW,2013-11-29 18:19:00,
2013-11-29 12:20:00,47.9,29.0,30.37,SE,135,3.4,9.5,48,0.00,,,0.00,WUHU216HW,2013-11-29 18:20:00,
2013-11-29 12:21:00,48.1,29.2,30.37,SE,135,3.1,9.5,48,0.00,,,0.00,WUHU216HW,2013-11-29 18:21:00,
2013-11-29 12:23:00,48.4,29.5,30.37,ESE,113,6.9,8.6,48,0.00,,,0.00,WUHU216HW,2013-11-29 18:23:00,
2013-11-29 12:24:00,48.4,29.0,30.37,SE,135,4.9,8.6,47,0.00,,,0.00,WUHU216HW,2013-11-29 18:24:00,
2013-11-29 12:25:00,48.2,28.8,30.37,ESE,113,5.4,8.6,47,0.00,,,0.00,WUHU216HW,2013-11-29 18:25:00,
2013-11-29 12:26:00,48.1,29.2,30.37,ESE,113,6.9,10.9,48,0.00,,,0.00,WUHU216HW,2013-11-29 18:26:00,
2013-11-29 12:28:00,47.9,29.0,30.37,SE,135,3.4,10.9,48,0.00,,,0.00,WUHU216HW,2013-11-29 18:28:00,
2013-11-29 12:29:00,47.9,29.0,30.37,ESE,113,6.3,10.9,48,0.00,,,0.00,WUHU216HW,2013-11-29 18:29:00,
2013-11-29 12:30:00,47.9,29.0,30.37,ESE,113,4.0,10.9,48,0.00,,,0.00,WUHU216HW,2013-11-29 18:30:00,
2013-11-29 12:31:00,47.9,29.0,30.37,ESE,113,4.5,10.9,48,0.00,,,0.00,WUHU216HW,2013-11-29 18:31:00,
2013-11-29 12:32:00,48.1,29.7,30.37,SE,135,4.9,10.9,49,0.00,,,0.00,WUHU216HW,2013-11-29 18:32:00,
2013-11-29 12:33:00,48.2,29.9,30.37,SE,135,4.0,10.9,49,0.00,,,0.00,WUHU216HW,2013-11-29 18:33:00,
2013-11-29 12:34:00,48.2,29.3,30.37,SE,135,4.7,10.9,48,0.00,,,0.00,WUHU216HW,2013-11-29 18:34:00,
2013-11-29 12:35:00,48.4,30.1,30.37,SE,135,3.4,10.9,49,0.00,,,0.00,WUHU216HW,2013-11-29 18:35:00,
2013-11-29 12:36:00,48.6,29.7,30.37,SE,135,3.6,10.4,48,0.00,,,0.00,WUHU216HW,2013-11-29 18:36:00,
2013-11-29 12:38:00,48.8,29.9,30.37,SE,135,7.4,9.3,48,0.00,,,0.00,WUHU216HW,2013-11-29 18:38:00,
2013-11-29 12:40:00,49.0,30.1,30.37,SSE,158,5.6,9.3,48,0.00,,,0.00,WUHU216HW,2013-11-29 18:40:00,
2013-11-29 12:41:00,49.1,30.3,30.37,South,180,4.7,9.3,48,0.00,,,0.00,WUHU216HW,2013-11-29 18:41:00,
2013-11-29 12:42:00,49.1,30.3,30.37,ESE,113,6.7,9.3,48,0.00,,,0.00,WUHU216HW,2013-11-29 18:42:00,
2013-11-29 12:43:00,49.1,29.7,30.37,South,180,5.8,9.3,47,0.00,,,0.00,WUHU216HW,2013-11-29 18:43:00,
2013-11-29 12:45:00,49.1,30.3,30.37,South,180,4.7,9.3,48,0.00,,,0.00,WUHU216HW,2013-11-29 18:45:00,
2013-11-29 12:46:00,49.3,29.9,30.37,South,180,5.1,9.3,47,0.00,,,0.00,WUHU216HW,2013-11-29 18:46:00,
2013-11-29 12:47:00,49.3,30.4,30.37,SSE,158,4.7,9.3,48,0.00,,,0.00,WUHU216HW,2013-11-29 18:47:00,
2013-11-29 12:48:00,49.5,30.1,30.37,SE,135,4.9,9.3,47,0.00,,,0.00,WUHU216HW,2013-11-29 18:48:00,
2013-11-29 12:50:00,49.5,30.1,30.37,SSE,158,2.2,9.3,47,0.00,,,0.00,WUHU216HW,2013-11-29 18:50:00,
2013-11-29 12:51:00,49.5,30.6,30.36,SSE,158,6.3,9.3,48,0.00,,,0.00,WUHU216HW,2013-11-29 18:51:00,
2013-11-29 12:52:00,49.7,30.3,30.36,South,180,1.1,9.3,47,0.00,,,0.00,WUHU216HW,2013-11-29 18:52:00,
2013-11-29 12:53:00,49.7,30.3,30.36,ESE,113,4.5,7.9,47,0.00,,,0.00,WUHU216HW,2013-11-29 18:53:00,
2013-11-29 12:54:00,49.9,30.3,30.36,SE,135,4.0,7.9,47,0.00,,,0.00,WUHU216HW,2013-11-29 18:54:00,
2013-11-29 12:55:00,50.0,30.5,30.36,ESE,113,6.0,7.9,47,0.00,,,0.00,WUHU216HW,2013-11-29 18:55:00,
2013-11-29 12:56:00,50.0,30.0,30.36,SE,135,6.3,7.9,46,0.00,,,0.00,WUHU216HW,2013-11-29 18:56:00,
2013-11-29 12:57:00,50.0,30.0,30.36,ESE,113,7.8,9.8,46,0.00,,,0.00,WUHU216HW,2013-11-29 18:57:00,
2013-11-29 12:58:00,50.0,30.0,30.36,SE,135,4.7,9.8,46,0.00,,,0.00,WUHU216HW,2013-11-29 18:58:00,
2013-11-29 12:59:00,50.0,30.0,30.36,SE,135,4.9,9.8,46,0.00,,,0.00,WUHU216HW,2013-11-29 18:59:00,
2013-11-29 13:00:00,50.0,30.0,30.35,SE,135,4.7,9.8,46,0.00,,,0.00,WUHU216HW,2013-11-29 19:00:00,
2013-11-29 13:02:00,50.0,30.0,30.35,ESE,113,3.4,9.8,46,0.00,,,0.00,WUHU216HW,2013-11-29 19:02:00,
2013-11-29 13:03:00,50.0,30.0,30.36,SE,135,4.0,9.8,46,0.00,,,0.00,WUHU216HW,2013-11-29 19:03:00,
2013-11-29 13:04:00,50.0,30.0,30.36,SSE,158,3.4,9.8,46,0.00,,,0.00,WUHU216HW,2013-11-29 19:04:00,
2013-11-29 13:05:00,50.2,30.2,30.35,SSE,158,2.7,9.8,46,0.00,,,0.00,WUHU216HW,2013-11-29 19:05:00,
2013-11-29 13:07:00,50.6,30.5,30.35,South,180,3.8,8.1,46,0.00,,,0.00,WUHU216HW,2013-11-29 19:07:00,
2013-11-29 13:08:00,50.4,30.3,30.35,SSE,158,4.5,8.1,46,0.00,,,0.00,WUHU216HW,2013-11-29 19:08:00,
2013-11-29 13:09:00,50.8,30.6,30.35,South,180,2.2,8.1,46,0.00,,,0.00,WUHU216HW,2013-11-29 19:09:00,
2013-11-29 13:10:00,50.8,30.6,30.35,SE,135,5.6,8.1,46,0.00,,,0.00,WUHU216HW,2013-11-29 19:10:00,
2013-11-29 13:13:00,50.9,30.2,30.34,SE,135,5.8,11.1,45,0.00,,,0.00,WUHU216HW,2013-11-29 19:13:00,
2013-11-29 13:14:00,50.9,30.2,30.34,SSE,158,4.5,11.1,45,0.00,,,0.00,WUHU216HW,2013-11-29 19:14:00,
2013-11-29 13:15:00,50.8,30.1,30.34,SE,135,3.1,11.1,45,0.00,,,0.00,WUHU216HW,2013-11-29 19:15:00,
2013-11-29 13:16:00,50.8,30.1,30.34,South,180,3.1,11.1,45,0.00,,,0.00,WUHU216HW,2013-11-29 19:16:00,
2013-11-29 13:18:00,50.8,30.1,30.34,SE,135,6.3,11.1,45,0.00,,,0.00,WUHU216HW,2013-11-29 19:18:00,
2013-11-29 13:19:00,50.8,30.1,30.34,SE,135,1.8,11.1,45,0.00,,,0.00,WUHU216HW,2013-11-29 19:19:00,
2013-11-29 13:20:00,50.8,30.1,30.34,SSE,158,1.1,11.1,45,0.00,,,0.00,WUHU216HW,2013-11-29 19:20:00,
2013-11-29 13:22:00,51.1,30.4,30.34,ESE,113,5.4,9.5,45,0.00,,,0.00,WUHU216HW,2013-11-29 19:22:00,
2013-11-29 13:23:00,51.1,30.4,30.34,SE,135,5.1,9.5,45,0.00,,,0.00,WUHU216HW,2013-11-29 19:23:00,
2013-11-29 13:24:00,51.1,29.9,30.34,ESE,113,6.5,10.9,44,0.00,,,0.00,WUHU216HW,2013-11-29 19:24:00,
2013-11-29 13:25:00,51.3,30.6,30.34,ESE,113,4.0,10.9,45,0.00,,,0.00,WUHU216HW,2013-11-29 19:25:00,
2013-11-29 13:27:00,51.1,29.9,30.34,East,90,3.1,10.9,44,0.00,,,0.00,WUHU216HW,2013-11-29 19:27:00,
2013-11-29 13:29:00,51.1,30.4,30.33,SSW,203,2.5,10.9,45,0.00,,,0.00,WUHU216HW,2013-11-29 19:29:00,
2013-11-29 13:30:00,51.3,30.6,30.33,SSE,158,4.7,10.9,45,0.00,,,0.00,WUHU216HW,2013-11-29 19:30:00,
2013-11-29 13:33:00,51.7,30.9,30.33,South,180,5.1,10.9,45,0.00,,,0.00,WUHU216HW,2013-11-29 19:33:00,
2013-11-29 13:34:00,51.7,30.3,30.33,SE,135,6.0,9.0,44,0.00,,,0.00,WUHU216HW,2013-11-29 19:34:00,
2013-11-29 13:36:00,51.5,30.2,30.33,ESE,113,6.3,12.3,44,0.00,,,0.00,WUHU216HW,2013-11-29 19:36:00,
2013-11-29 13:39:00,51.1,29.9,30.33,SE,135,5.8,12.3,44,0.00,,,0.00,WUHU216HW,2013-11-29 19:39:00,
2013-11-29 13:40:00,51.1,30.4,30.33,SSE,158,4.9,12.3,45,0.00,,,0.00,WUHU216HW,2013-11-29 19:40:00,
2013-11-29 13:41:00,51.1,30.4,30.33,ESE,113,7.2,12.3,45,0.00,,,0.00,WUHU216HW,2013-11-29 19:41:00,
2013-11-29 13:44:00,51.3,30.0,30.33,SSE,158,6.0,12.3,44,0.00,,,0.00,WUHU216HW,2013-11-29 19:44:00,
2013-11-29 13:45:00,51.3,30.0,30.32,SE,135,5.1,12.3,44,0.00,,,0.00,WUHU216HW,2013-11-29 19:45:00,
2013-11-29 13:46:00,51.3,30.0,30.32,SSE,158,6.9,13.4,44,0.00,,,0.00,WUHU216HW,2013-11-29 19:46:00,
2013-11-29 13:49:00,51.3,30.0,30.32,ESE,113,1.8,13.4,44,0.00,,,0.00,WUHU216HW,2013-11-29 19:49:00,
2013-11-29 13:50:00,51.5,30.2,30.32,SSE,158,4.5,13.4,44,0.00,,,0.00,WUHU216HW,2013-11-29 19:50:00,
2013-11-29 13:51:00,51.5,30.2,30.32,SSE,158,3.8,13.4,44,0.00,,,0.00,WUHU216HW,2013-11-29 19:51:00,
2013-11-29 13:54:00,51.7,30.3,30.32,SE,135,5.1,13.4,44,0.00,,,0.00,WUHU216HW,2013-11-29 19:54:00,
2013-11-29 13:55:00,51.8,30.5,30.32,SSE,158,6.3,13.4,44,0.00,,,0.00,WUHU216HW,2013-11-29 19:55:00,
2013-11-29 13:56:00,52.0,30.7,30.32,SSE,158,3.4,9.5,44,0.00,,,0.00,WUHU216HW,2013-11-29 19:56:00,
2013-11-29 13:59:00,52.2,30.2,30.31,SE,135,5.1,8.1,43,0.00,,,0.00,WUHU216HW,2013-11-29 19:59:00,
2013-11-29 14:00:00,52.2,30.2,30.31,SSW,203,5.8,8.1,43,0.00,,,0.00,WUHU216HW,2013-11-29 20:00:00,
2013-11-29 14:01:00,52.2,30.8,30.31,SW,225,3.1,8.1,44,0.00,,,0.00,WUHU216HW,2013-11-29 20:01:00,
2013-11-29 14:05:00,52.2,30.2,30.31,SE,135,5.4,9.8,43,0.00,,,0.00,WUHU216HW,2013-11-29 20:05:00,
2013-11-29 14:06:00,52.2,30.2,30.31,SE,135,6.3,9.8,43,0.00,,,0.00,WUHU216HW,2013-11-29 20:06:00,
2013-11-29 14:07:00,52.2,30.2,30.31,ESE,113,6.9,9.8,43,0.00,,,0.00,WUHU216HW,2013-11-29 20:07:00,
2013-11-29 14:10:00,52.2,30.2,30.31,SW,225,3.8,11.5,43,0.00,,,0.00,WUHU216HW,2013-11-29 20:10:00,
2013-11-29 14:11:00,52.2,30.2,30.31,South,180,4.9,11.5,43,0.00,,,0.00,WUHU216HW,2013-11-29 20:11:00,
2013-11-29 14:12:00,52.4,31.0,30.31,SSE,158,2.7,11.5,44,0.00,,,0.00,WUHU216HW,2013-11-29 20:12:00,
2013-11-29 14:13:00,52.6,31.1,30.31,SE,135,3.8,11.5,44,0.00,,,0.00,WUHU216HW,2013-11-29 20:13:00,
2013-11-29 14:15:00,52.7,31.3,30.31,SW,225,6.9,11.5,44,0.00,,,0.00,WUHU216HW,2013-11-29 20:15:00,
2013-11-29 14:16:00,52.7,31.3,30.31,SE,135,6.0,11.5,44,0.00,,,0.00,WUHU216HW,2013-11-29 20:16:00,
2013-11-29 14:17:00,52.7,30.8,30.30,SSE,158,7.6,11.5,43,0.00,,,0.00,WUHU216HW,2013-11-29 20:17:00,
2013-11-29 14:18:00,52.6,30.6,30.30,SE,135,5.4,11.5,43,0.00,,,0.00,WUHU216HW,2013-11-29 20:18:00,
2013-11-29 14:20:00,52.4,30.4,30.30,SSE,158,6.9,10.4,43,0.00,,,0.00,WUHU216HW,2013-11-29 20:20:00,
2013-11-29 14:21:00,52.4,30.4,30.30,SE,135,5.4,10.4,43,0.00,,,0.00,WUHU216HW,2013-11-29 20:21:00,
2013-11-29 14:22:00,52.4,30.4,30.30,SSE,158,7.8,10.4,43,0.00,,,0.00,WUHU216HW,2013-11-29 20:22:00,
2013-11-29 14:23:00,52.4,30.4,30.30,SE,135,6.3,10.4,43,0.00,,,0.00,WUHU216HW,2013-11-29 20:23:00,
2013-11-29 14:25:00,52.6,31.1,30.31,South,180,10.5,13.1,44,0.00,,,0.00,WUHU216HW,2013-11-29 20:25:00,
2013-11-29 14:26:00,52.6,31.1,30.30,SSW,203,6.5,13.1,44,0.00,,,0.00,WUHU216HW,2013-11-29 20:26:00,
2013-11-29 14:27:00,52.6,31.1,30.30,South,180,7.8,13.1,44,0.00,,,0.00,WUHU216HW,2013-11-29 20:27:00,
2013-11-29 14:28:00,52.6,31.1,30.30,SSE,158,5.8,13.1,44,0.00,,,0.00,WUHU216HW,2013-11-29 20:28:00,
2013-11-29 14:31:00,52.6,31.1,30.30,SE,135,6.9,13.1,44,0.00,,,0.00,WUHU216HW,2013-11-29 20:31:00,
2013-11-29 14:32:00,52.6,31.1,30.30,SSE,158,2.5,13.1,44,0.00,,,0.00,WUHU216HW,2013-11-29 20:32:00,
2013-11-29 14:34:00,52.6,31.1,30.30,SE,135,3.6,13.1,44,0.00,,,0.00,WUHU216HW,2013-11-29 20:34:00,
2013-11-29 14:36:00,52.6,31.1,30.30,SE,135,6.9,10.1,44,0.00,,,0.00,WUHU216HW,2013-11-29 20:36:00,
2013-11-29 14:37:00,52.7,31.3,30.30,ESE,113,3.8,10.1,44,0.00,,,0.00,WUHU216HW,2013-11-29 20:37:00,
2013-11-29 14:38:00,52.7,31.3,30.30,SE,135,5.8,10.1,44,0.00,,,0.00,WUHU216HW,2013-11-29 20:38:00,
2013-11-29 14:39:00,52.9,31.5,30.29,South,180,5.4,10.1,44,0.00,,,0.00,WUHU216HW,2013-11-29 20:39:00,
2013-11-29 14:41:00,52.9,31.5,30.29,SSE,158,4.0,10.1,44,0.00,,,0.00,WUHU216HW,2013-11-29 20:41:00,
2013-11-29 14:42:00,52.9,31.5,30.29,SSE,158,4.0,10.1,44,0.00,,,0.00,WUHU216HW,2013-11-29 20:42:00,
2013-11-29 14:43:00,52.9,31.5,30.29,SSE,158,3.8,10.1,44,0.00,,,0.00,WUHU216HW,2013-11-29 20:43:00,
2013-11-29 14:44:00,52.9,31.5,30.29,East,90,3.8,10.1,44,0.00,,,0.00,WUHU216HW,2013-11-29 20:44:00,
2013-11-29 14:46:00,53.1,31.6,30.29,ESE,113,6.9,9.5,44,0.00,,,0.00,WUHU216HW,2013-11-29 20:46:00,
2013-11-29 14:47:00,53.1,31.1,30.29,WSW,248,3.4,9.5,43,0.00,,,0.00,WUHU216HW,2013-11-29 20:47:00,
2013-11-29 14:48:00,53.1,31.1,30.29,SW,225,4.0,9.5,43,0.00,,,0.00,WUHU216HW,2013-11-29 20:48:00,
2013-11-29 14:49:00,53.1,31.6,30.29,South,180,2.7,9.5,44,0.00,,,0.00,WUHU216HW,2013-11-29 20:49:00,
2013-11-29 14:51:00,53.3,31.8,30.29,SSE,158,6.3,9.5,44,0.00,,,0.00,WUHU216HW,2013-11-29 20:51:00,
2013-11-29 14:52:00,53.3,31.8,30.29,SSE,158,4.5,9.5,44,0.00,,,0.00,WUHU216HW,2013-11-29 20:52:00,
2013-11-29 14:53:00,53.3,31.8,30.29,SSW,203,6.9,9.5,44,0.00,,,0.00,WUHU216HW,2013-11-29 20:53:00,
2013-11-29 14:55:00,53.5,31.4,30.29,SE,135,5.6,12.6,43,0.00,,,0.00,WUHU216HW,2013-11-29 20:55:00,
2013-11-29 14:56:00,53.5,31.4,30.29,South,180,5.8,12.6,43,0.00,,,0.00,WUHU216HW,2013-11-29 20:56:00,
2013-11-29 14:58:00,53.3,31.2,30.29,SE,135,3.6,12.6,43,0.00,,,0.00,WUHU216HW,2013-11-29 20:58:00,
2013-11-29 15:00:00,53.1,31.1,30.29,ESE,113,6.3,12.6,43,0.00,,,0.00,WUHU216HW,2013-11-29 21:00:00,
2013-11-29 15:01:00,53.1,31.6,30.29,SSE,158,4.7,12.6,44,0.00,,,0.00,WUHU216HW,2013-11-29 21:01:00,
2013-11-29 15:03:00,53.3,31.2,30.29,South,180,6.9,12.6,43,0.00,,,0.00,WUHU216HW,2013-11-29 21:03:00,
2013-11-29 15:04:00,53.1,31.1,30.29,SE,135,3.4,12.6,43,0.00,,,0.00,WUHU216HW,2013-11-29 21:04:00,
2013-11-29 15:05:00,53.1,31.6,30.29,South,180,7.6,12.3,44,0.00,,,0.00,WUHU216HW,2013-11-29 21:05:00,
2013-11-29 15:06:00,53.3,31.2,30.29,SSE,158,4.9,12.3,43,0.00,,,0.00,WUHU216HW,2013-11-29 21:06:00,
2013-11-29 15:08:00,53.3,31.2,30.29,South,180,5.6,12.3,43,0.00,,,0.00,WUHU216HW,2013-11-29 21:08:00,
2013-11-29 15:09:00,53.1,31.1,30.29,SE,135,6.7,12.3,43,0.00,,,0.00,WUHU216HW,2013-11-29 21:09:00,
2013-11-29 15:10:00,53.1,31.1,30.29,SE,135,4.3,11.5,43,0.00,,,0.00,WUHU216HW,2013-11-29 21:10:00,
2013-11-29 15:11:00,53.1,31.1,30.29,SE,135,6.3,11.5,43,0.00,,,0.00,WUHU216HW,2013-11-29 21:11:00,
2013-11-29 15:13:00,52.9,30.9,30.29,South,180,4.3,11.5,43,0.00,,,0.00,WUHU216HW,2013-11-29 21:13:00,
2013-11-29 15:14:00,52.9,30.9,30.29,South,180,8.7,11.5,43,0.00,,,0.00,WUHU216HW,2013-11-29 21:14:00,
2013-11-29 15:16:00,52.9,30.9,30.29,SSW,203,8.7,11.5,43,0.00,,,0.00,WUHU216HW,2013-11-29 21:16:00,
2013-11-29 15:18:00,52.9,31.5,30.29,SSE,158,2.9,11.5,44,0.00,,,0.00,WUHU216HW,2013-11-29 21:18:00,
2013-11-29 15:19:00,52.9,31.5,30.29,SSW,203,4.3,11.5,44,0.00,,,0.00,WUHU216HW,2013-11-29 21:19:00,
2013-11-29 15:20:00,53.1,31.6,30.29,SSE,158,4.5,10.9,44,0.00,,,0.00,WUHU216HW,2013-11-29 21:20:00,
2013-11-29 15:21:00,53.1,31.6,30.29,South,180,3.8,10.9,44,0.00,,,0.00,WUHU216HW,2013-11-29 21:21:00,
2013-11-29 15:23:00,53.3,31.8,30.29,SE,135,4.5,10.9,44,0.00,,,0.00,WUHU216HW,2013-11-29 21:23:00,
2013-11-29 15:24:00,53.3,31.8,30.29,SSW,203,4.3,10.9,44,0.00,,,0.00,WUHU216HW,2013-11-29 21:24:00,
2013-11-29 15:25:00,53.3,31.8,30.29,South,180,10.1,12.6,44,0.00,,,0.00,WUHU216HW,2013-11-29 21:25:00,
2013-11-29 15:26:00,53.1,31.1,30.28,SE,135,4.0,12.6,43,0.00,,,0.00,WUHU216HW,2013-11-29 21:26:00,
2013-11-29 15:27:00,53.1,31.6,30.28,SE,135,4.0,12.6,44,0.00,,,0.00,WUHU216HW,2013-11-29 21:27:00,
2013-11-29 15:29:00,52.9,31.5,30.29,South,180,4.0,12.6,44,0.00,,,0.00,WUHU216HW,2013-11-29 21:29:00,
2013-11-29 15:30:00,52.9,31.5,30.29,SSE,158,5.1,12.6,44,0.00,,,0.00,WUHU216HW,2013-11-29 21:30:00,
2013-11-29 15:32:00,52.6,31.1,30.28,South,180,3.1,12.6,44,0.00,,,0.00,WUHU216HW,2013-11-29 21:32:00,
2013-11-29 15:34:00,52.6,31.7,30.28,SSE,158,4.0,12.6,45,0.00,,,0.00,WUHU216HW,2013-11-29 21:34:00,
2013-11-29 15:35:00,52.6,31.7,30.28,South,180,5.6,11.8,45,0.00,,,0.00,WUHU216HW,2013-11-29 21:35:00,
2013-11-29 15:37:00,52.6,31.7,30.28,SSW,203,6.7,11.8,45,0.00,,,0.00,WUHU216HW,2013-11-29 21:37:00,
2013-11-29 15:38:00,52.4,31.0,30.28,SSW,203,7.4,11.8,44,0.00,,,0.00,WUHU216HW,2013-11-29 21:38:00,
2013-11-29 15:39:00,52.4,31.0,30.28,WSW,248,3.8,11.8,44,0.00,,,0.00,WUHU216HW,2013-11-29 21:39:00,
2013-11-29 15:40:00,52.2,30.8,30.28,SW,225,5.8,11.8,44,0.00,,,0.00,WUHU216HW,2013-11-29 21:40:00,
2013-11-29 15:41:00,52.2,30.8,30.28,SE,135,6.3,11.8,44,0.00,,,0.00,WUHU216HW,2013-11-29 21:41:00,
2013-11-29 15:42:00,52.0,30.7,30.28,SE,135,7.2,11.8,44,0.00,,,0.00,WUHU216HW,2013-11-29 21:42:00,
2013-11-29 15:43:00,51.8,30.5,30.28,South,180,5.6,11.8,44,0.00,,,0.00,WUHU216HW,2013-11-29 21:43:00,
2013-11-29 15:45:00,51.7,30.3,30.28,SSE,158,4.5,13.8,44,0.00,,,0.00,WUHU216HW,2013-11-29 21:45:00,
2013-11-29 15:46:00,51.5,30.7,30.28,SSW,203,8.9,13.8,45,0.00,,,0.00,WUHU216HW,2013-11-29 21:46:00,
2013-11-29 15:47:00,51.5,30.7,30.28,SE,135,5.8,13.8,45,0.00,,,0.00,WUHU216HW,2013-11-29 21:47:00,
2013-11-29 15:49:00,51.3,30.6,30.28,SSW,203,4.5,13.8,45,0.00,,,0.00,WUHU216HW,2013-11-29 21:49:00,
2013-11-29 15:50:00,51.1,30.4,30.28,ESE,113,3.6,13.8,45,0.00,,,0.00,WUHU216HW,2013-11-29 21:50:00,
2013-11-29 15:52:00,50.9,30.2,30.28,SSW,203,5.6,13.8,45,0.00,,,0.00,WUHU216HW,2013-11-29 21:52:00,
2013-11-29 15:54:00,50.9,30.8,30.28,SSE,158,5.6,13.4,46,0.00,,,0.00,WUHU216HW,2013-11-29 21:54:00,
2013-11-29 15:56:00,50.8,30.6,30.28,South,180,8.5,13.4,46,0.00,,,0.00,WUHU216HW,2013-11-29 21:56:00,
2013-11-29 15:57:00,50.8,30.6,30.27,SE,135,4.7,13.4,46,0.00,,,0.00,WUHU216HW,2013-11-29 21:57:00,
2013-11-29 15:58:00,50.8,30.6,30.27,SSE,158,7.2,11.1,46,0.00,,,0.00,WUHU216HW,2013-11-29 21:58:00,
2013-11-29 15:59:00,50.8,30.6,30.27,South,180,6.5,16.0,46,0.00,,,0.00,WUHU216HW,2013-11-29 21:59:00,
2013-11-29 16:01:00,50.8,30.6,30.27,South,180,6.5,16.0,46,0.00,,,0.00,WUHU216HW,2013-11-29 22:01:00,
2013-11-29 16:03:00,50.8,30.1,30.27,SE,135,6.3,16.0,45,0.00,,,0.00,WUHU216HW,2013-11-29 22:03:00,
2013-11-29 16:05:00,50.8,30.1,30.27,SSE,158,4.7,16.0,45,0.00,,,0.00,WUHU216HW,2013-11-29 22:05:00,
2013-11-29 16:06:00,50.8,30.1,30.27,South,180,3.6,16.0,45,0.00,,,0.00,WUHU216HW,2013-11-29 22:06:00,
2013-11-29 16:07:00,50.8,30.1,30.27,South,180,3.6,16.0,45,0.00,,,0.00,WUHU216HW,2013-11-29 22:07:00,
2013-11-29 16:08:00,50.6,29.9,30.27,SSE,158,6.3,16.0,45,0.00,,,0.00,WUHU216HW,2013-11-29 22:08:00,
2013-11-29 16:10:00,50.6,30.5,30.27,SE,135,3.4,9.5,46,0.00,,,0.00,WUHU216HW,2013-11-29 22:10:00,
2013-11-29 16:11:00,50.4,30.3,30.27,SE,135,3.4,9.5,46,0.00,,,0.00,WUHU216HW,2013-11-29 22:11:00,
2013-11-29 16:13:00,50.4,30.3,30.27,SSE,158,4.0,9.8,46,0.00,,,0.00,WUHU216HW,2013-11-29 22:13:00,
2013-11-29 16:14:00,50.4,30.3,30.27,SE,135,2.5,9.8,46,0.00,,,0.00,WUHU216HW,2013-11-29 22:14:00,
2013-11-29 16:15:00,50.2,30.2,30.27,SSE,158,8.5,10.6,46,0.00,,,0.00,WUHU216HW,2013-11-29 22:15:00,
2013-11-29 16:16:00,50.4,30.3,30.27,South,180,5.6,10.6,46,0.00,,,0.00,WUHU216HW,2013-11-29 22:16:00,
2013-11-29 16:18:00,50.2,30.2,30.27,SSE,158,2.9,10.6,46,0.00,,,0.00,WUHU216HW,2013-11-29 22:18:00,
2013-11-29 16:19:00,50.2,30.2,30.27,SSE,158,2.5,10.6,46,0.00,,,0.00,WUHU216HW,2013-11-29 22:19:00,
2013-11-29 16:21:00,50.0,30.0,30.27,SE,135,5.8,10.6,46,0.00,,,0.00,WUHU216HW,2013-11-29 22:21:00,
2013-11-29 16:22:00,50.0,30.5,30.27,SE,135,1.6,10.6,47,0.00,,,0.00,WUHU216HW,2013-11-29 22:22:00,
2013-11-29 16:23:00,49.9,30.3,30.27,SSE,158,6.3,10.6,47,0.00,,,0.00,WUHU216HW,2013-11-29 22:23:00,
2013-11-29 16:24:00,49.9,30.3,30.27,SSE,158,4.3,10.6,47,0.00,,,0.00,WUHU216HW,2013-11-29 22:24:00,
2013-11-29 16:26:00,49.7,30.3,30.27,SSE,158,4.3,9.3,47,0.00,,,0.00,WUHU216HW,2013-11-29 22:26:00,
2013-11-29 16:27:00,49.7,30.3,30.27,SE,135,3.1,9.3,47,0.00,,,0.00,WUHU216HW,2013-11-29 22:27:00,
2013-11-29 16:28:00,49.7,30.3,30.27,South,180,2.7,9.3,47,0.00,,,0.00,WUHU216HW,2013-11-29 22:28:00,
2013-11-29 16:29:00,49.7,30.3,30.27,SSW,203,2.9,9.3,47,0.00,,,0.00,WUHU216HW,2013-11-29 22:29:00,
2013-11-29 16:31:00,49.3,30.4,30.26,SSE,158,2.9,7.9,48,0.00,,,0.00,WUHU216HW,2013-11-29 22:31:00,
2013-11-29 16:32:00,49.3,30.4,30.26,SSE,158,3.4,7.9,48,0.00,,,0.00,WUHU216HW,2013-11-29 22:32:00,
2013-11-29 16:34:00,49.3,30.4,30.27,South,180,5.4,7.5,48,0.00,,,0.00,WUHU216HW,2013-11-29 22:34:00,
2013-11-29 16:35:00,49.1,30.3,30.26,SSE,158,6.7,8.4,48,0.00,,,0.00,WUHU216HW,2013-11-29 22:35:00,
2013-11-29 16:36:00,49.1,30.3,30.26,ESE,113,5.4,8.4,48,0.00,,,0.00,WUHU216HW,2013-11-29 22:36:00,
2013-11-29 16:37:00,49.1,30.3,30.26,SE,135,4.7,8.4,48,0.00,,,0.00,WUHU216HW,2013-11-29 22:37:00,
2013-11-29 16:38:00,49.0,30.1,30.27,South,180,2.5,8.4,48,0.00,,,0.00,WUHU216HW,2013-11-29 22:38:00,
2013-11-29 16:39:00,49.1,30.3,30.26,South,180,0.7,8.4,48,0.00,,,0.00,WUHU216HW,2013-11-29 22:39:00,
2013-11-29 16:40:00,49.0,30.1,30.27,SSE,158,4.0,8.4,48,0.00,,,0.00,WUHU216HW,2013-11-29 22:40:00,
2013-11-29 16:41:00,49.0,30.6,30.26,SSE,158,3.4,8.6,49,0.00,,,0.00,WUHU216HW,2013-11-29 22:41:00,
2013-11-29 16:42:00,49.0,30.6,30.26,SSE,158,4.9,8.6,49,0.00,,,0.00,WUHU216HW,2013-11-29 22:42:00,
2013-11-29 16:43:00,48.8,30.4,30.26,SSE,158,3.4,8.6,49,0.00,,,0.00,WUHU216HW,2013-11-29 22:43:00,
2013-11-29 16:44:00,48.8,30.4,30.26,SSE,158,2.5,8.6,49,0.00,,,0.00,WUHU216HW,2013-11-29 22:44:00,
2013-11-29 16:46:00,48.6,30.3,30.26,SSE,158,1.6,8.6,49,0.00,,,0.00,WUHU216HW,2013-11-29 22:46:00,
2013-11-29 16:47:00,48.6,30.3,30.26,SSE,158,1.6,8.6,49,0.00,,,0.00,WUHU216HW,2013-11-29 22:47:00,
2013-11-29 16:48:00,48.6,30.3,30.26,SSE,158,2.7,8.6,49,0.00,,,0.00,WUHU216HW,2013-11-29 22:48:00,
2013-11-29 16:49:00,48.4,30.1,30.26,SSE,158,2.5,8.6,49,0.00,,,0.00,WUHU216HW,2013-11-29 22:49:00,
2013-11-29 16:52:00,48.2,30.4,30.26,SE,135,1.1,7.3,50,0.00,,,0.00,WUHU216HW,2013-11-29 22:52:00,
2013-11-29 16:53:00,48.2,29.9,30.26,SE,135,3.8,7.3,49,0.00,,,0.00,WUHU216HW,2013-11-29 22:53:00,
2013-11-29 16:54:00,48.2,30.4,30.26,SE,135,2.7,7.3,50,0.00,,,0.00,WUHU216HW,2013-11-29 22:54:00,
2013-11-29 16:57:00,48.1,30.2,30.26,SSE,158,2.9,7.3,50,0.00,,,0.00,WUHU216HW,2013-11-29 22:57:00,
2013-11-29 16:58:00,47.9,30.1,30.26,ESE,113,3.1,7.3,50,0.00,,,0.00,WUHU216HW,2013-11-29 22:58:00,
2013-11-29 16:59:00,47.9,30.1,30.26,SSE,158,2.5,7.3,50,0.00,,,0.00,WUHU216HW,2013-11-29 22:59:00,
2013-11-29 17:02:00,47.7,30.0,30.26,SSE,158,3.4,5.6,50,0.00,,,0.00,WUHU216HW,2013-11-29 23:02:00,
2013-11-29 17:03:00,47.7,30.0,30.26,SSE,158,2.0,5.6,50,0.00,,,0.00,WUHU216HW,2013-11-29 23:03:00,
2013-11-29 17:04:00,47.5,29.8,30.26,SSE,158,0.7,5.6,50,0.00,,,0.00,WUHU216HW,2013-11-29 23:04:00,
2013-11-29 17:07:00,47.3,30.1,30.26,SE,135,2.5,5.9,51,0.00,,,0.00,WUHU216HW,2013-11-29 23:07:00,
2013-11-29 17:08:00,47.3,30.1,30.26,SE,135,2.5,5.9,51,0.00,,,0.00,WUHU216HW,2013-11-29 23:08:00,
2013-11-29 17:09:00,47.2,29.9,30.26,SSE,158,2.5,5.9,51,0.00,,,0.00,WUHU216HW,2013-11-29 23:09:00,
2013-11-29 17:13:00,47.2,29.9,30.26,SE,135,2.2,5.9,51,0.00,,,0.00,WUHU216HW,2013-11-29 23:13:00,
2013-11-29 17:14:00,47.2,29.9,30.26,SSE,158,2.5,5.9,51,0.00,,,0.00,WUHU216HW,2013-11-29 23:14:00,
2013-11-29 17:15:00,47.2,30.3,30.26,South,180,2.5,5.9,52,0.00,,,0.00,WUHU216HW,2013-11-29 23:15:00,
2013-11-29 17:19:00,47.0,30.3,30.26,SE,135,4.7,5.9,52,0.00,,,0.00,WUHU216HW,2013-11-29 23:19:00,
2013-11-29 17:20:00,47.0,30.3,30.26,SSE,158,3.4,5.9,52,0.00,,,0.00,WUHU216HW,2013-11-29 23:20:00,
2013-11-29 17:24:00,46.8,30.1,30.26,SSE,158,2.5,6.8,52,0.00,,,0.00,WUHU216HW,2013-11-29 23:24:00,
2013-11-29 17:25:00,46.6,29.9,30.26,SE,135,4.3,6.8,52,0.00,,,0.00,WUHU216HW,2013-11-29 23:25:00,
2013-11-29 17:26:00,46.6,29.9,30.26,SE,135,3.6,6.8,52,0.00,,,0.00,WUHU216HW,2013-11-29 23:26:00,
2013-11-29 17:29:00,46.4,29.7,30.26,East,90,5.4,6.8,52,0.00,,,0.00,WUHU216HW,2013-11-29 23:29:00,
2013-11-29 17:30:00,46.4,29.7,30.26,South,180,2.2,6.8,52,0.00,,,0.00,WUHU216HW,2013-11-29 23:30:00,
2013-11-29 17:31:00,46.4,29.7,30.26,SE,135,3.1,6.8,52,0.00,,,0.00,WUHU216HW,2013-11-29 23:31:00,
2013-11-29 17:34:00,46.3,30.0,30.26,SSE,158,2.5,6.8,53,0.00,,,0.00,WUHU216HW,2013-11-29 23:34:00,
2013-11-29 17:35:00,46.3,30.0,30.26,SE,135,3.4,6.8,53,0.00,,,0.00,WUHU216HW,2013-11-29 23:35:00,
2013-11-29 17:36:00,46.3,30.0,30.26,SSW,203,4.7,6.8,53,0.00,,,0.00,WUHU216HW,2013-11-29 23:36:00,
2013-11-29 17:37:00,46.1,29.8,30.25,SSW,203,3.1,6.8,53,0.00,,,0.00,WUHU216HW,2013-11-29 23:37:00,
2013-11-29 17:38:00,46.1,29.8,30.26,SSE,158,2.7,6.8,53,0.00,,,0.00,WUHU216HW,2013-11-29 23:38:00,
2013-11-29 17:39:00,46.1,29.8,30.26,SSE,158,2.2,5.9,53,0.00,,,0.00,WUHU216HW,2013-11-29 23:39:00,
2013-11-29 17:40:00,46.1,29.8,30.26,South,180,2.7,5.9,53,0.00,,,0.00,WUHU216HW,2013-11-29 23:40:00,
2013-11-29 17:41:00,46.1,29.8,30.26,SSE,158,3.6,5.9,53,0.00,,,0.00,WUHU216HW,2013-11-29 23:41:00,
2013-11-29 17:43:00,46.1,29.8,30.26,SE,135,5.4,7.3,53,0.00,,,0.00,WUHU216HW,2013-11-29 23:43:00,
2013-11-29 17:44:00,45.9,29.7,30.26,SE,135,5.4,7.3,53,0.00,,,0.00,WUHU216HW,2013-11-29 23:44:00,
2013-11-29 17:45:00,45.9,29.7,30.26,SSE,158,2.5,7.3,53,0.00,,,0.00,WUHU216HW,2013-11-29 23:45:00,
2013-11-29 17:46:00,45.9,29.7,30.26,SE,135,2.5,7.3,53,0.00,,,0.00,WUHU216HW,2013-11-29 23:46:00,
2013-11-29 17:47:00,45.9,29.7,30.26,SE,135,4.0,7.3,53,0.00,,,0.00,WUHU216HW,2013-11-29 23:47:00,
2013-11-29 17:48:00,45.9,29.7,30.26,SSE,158,2.9,7.3,53,0.00,,,0.00,WUHU216HW,2013-11-29 23:48:00,
2013-11-29 17:49:00,45.9,29.7,30.26,SSE,158,2.9,7.3,53,0.00,,,0.00,WUHU216HW,2013-11-29 23:49:00,
2013-11-29 17:50:00,45.9,30.2,30.26,SE,135,3.8,7.3,54,0.00,,,0.00,WUHU216HW,2013-11-29 23:50:00,
2013-11-29 17:51:00,45.9,29.7,30.26,SSE,158,2.7,7.3,53,0.00,,,0.00,WUHU216HW,2013-11-29 23:51:00,
2013-11-29 17:53:00,45.7,29.5,30.25,ESE,113,1.8,6.8,53,0.00,,,0.00,WUHU216HW,2013-11-29 23:53:00,
2013-11-29 17:54:00,45.7,29.5,30.25,ESE,113,1.8,5.9,53,0.00,,,0.00,WUHU216HW,2013-11-29 23:54:00,
2013-11-29 17:55:00,45.7,30.0,30.25,SE,135,1.8,5.9,54,0.00,,,0.00,WUHU216HW,2013-11-29 23:55:00,
2013-11-29 17:56:00,45.7,29.5,30.25,SSE,158,2.0,5.9,53,0.00,,,0.00,WUHU216HW,2013-11-29 23:56:00,
2013-11-29 17:58:00,45.7,30.0,30.25,SE,135,4.5,5.9,54,0.00,,,0.00,WUHU216HW,2013-11-29 23:58:00,
2013-11-29 17:59:00,45.5,29.8,30.25,SSE,158,2.5,5.9,54,0.00,,,0.00,WUHU216HW,2013-11-29 23:59:00,
2013-11-29 18:00:00,45.5,29.8,30.25,SSE,158,2.7,5.9,54,0.00,,,0.00,WUHU216HW,2013-11-30 00:00:00,
2013-11-29 18:01:00,45.5,29.8,30.25,SE,135,2.5,5.6,54,0.00,,,0.00,WUHU216HW,2013-11-30 00:01:00,
2013-11-29 18:04:00,45.4,29.6,30.25,South,180,2.2,5.6,54,0.00,,,0.00,WUHU216HW,2013-11-30 00:04:00,
2013-11-29 18:05:00,45.4,29.6,30.25,South,180,4.7,6.4,54,0.00,,,0.00,WUHU216HW,2013-11-30 00:05:00,
2013-11-29 18:06:00,45.4,29.6,30.25,SSE,158,6.0,7.5,54,0.00,,,0.00,WUHU216HW,2013-11-30 00:06:00,
2013-11-29 18:09:00,45.5,29.8,30.25,SSE,158,3.1,7.5,54,0.00,,,0.00,WUHU216HW,2013-11-30 00:09:00,
2013-11-29 18:10:00,45.5,29.8,30.25,ESE,113,4.3,7.9,54,0.00,,,0.00,WUHU216HW,2013-11-30 00:10:00,
2013-11-29 18:11:00,45.5,29.8,30.25,SE,135,4.7,7.9,54,0.00,,,0.00,WUHU216HW,2013-11-30 00:11:00,
2013-11-29 18:12:00,45.4,29.6,30.25,SSE,158,5.6,7.9,54,0.00,,,0.00,WUHU216HW,2013-11-30 00:12:00,
2013-11-29 18:14:00,45.4,29.6,30.25,SSE,158,4.9,7.9,54,0.00,,,0.00,WUHU216HW,2013-11-30 00:14:00,
2013-11-29 18:15:00,45.4,29.6,30.25,SSE,158,5.8,7.9,54,0.00,,,0.00,WUHU216HW,2013-11-30 00:15:00,
2013-11-29 18:16:00,45.4,29.6,30.25,South,180,5.1,7.9,54,0.00,,,0.00,WUHU216HW,2013-11-30 00:16:00,
2013-11-29 18:17:00,45.4,29.6,30.25,SSE,158,4.9,8.1,54,0.00,,,0.00,WUHU216HW,2013-11-30 00:17:00,
2013-11-29 18:19:00,45.4,29.6,30.25,SSE,158,3.4,8.1,54,0.00,,,0.00,WUHU216HW,2013-11-30 00:19:00,
2013-11-29 18:20:00,45.4,29.6,30.25,South,180,3.8,8.1,54,0.00,,,0.00,WUHU216HW,2013-11-30 00:20:00,
2013-11-29 18:21:00,45.4,29.6,30.25,South,180,1.6,8.1,54,0.00,,,0.00,WUHU216HW,2013-11-30 00:21:00,
2013-11-29 18:22:00,45.2,29.4,30.25,SE,135,2.7,8.1,54,0.00,,,0.00,WUHU216HW,2013-11-30 00:22:00,
2013-11-29 18:23:00,45.2,29.4,30.26,SE,135,4.3,8.6,54,0.00,,,0.00,WUHU216HW,2013-11-30 00:23:00,
2013-11-29 18:25:00,45.0,29.4,30.25,SSE,158,5.4,8.6,54,0.00,,,0.00,WUHU216HW,2013-11-30 00:25:00,
2013-11-29 18:26:00,45.0,29.4,30.25,South,180,4.7,8.6,54,0.00,,,0.00,WUHU216HW,2013-11-30 00:26:00,
2013-11-29 18:27:00,45.0,29.4,30.25,SSE,158,6.0,8.6,54,0.00,,,0.00,WUHU216HW,2013-11-30 00:27:00,
2013-11-29 18:28:00,45.0,29.4,30.25,SE,135,4.5,8.6,54,0.00,,,0.00,WUHU216HW,2013-11-30 00:28:00,
2013-11-29 18:30:00,45.0,29.4,30.25,SSW,203,6.9,9.0,54,0.00,,,0.00,WUHU216HW,2013-11-30 00:30:00,
2013-11-29 18:31:00,45.0,29.4,30.25,SSE,158,4.0,9.0,54,0.00,,,0.00,WUHU216HW,2013-11-30 00:31:00,
2013-11-29 18:32:00,45.0,29.4,30.25,South,180,3.4,9.0,54,0.00,,,0.00,WUHU216HW,2013-11-30 00:32:00,
2013-11-29 18:33:00,45.0,28.9,30.25,South,180,2.7,9.0,53,0.00,,,0.00,WUHU216HW,2013-11-30 00:33:00,
2013-11-29 18:35:00,45.0,28.9,30.25,SSW,203,1.8,9.0,53,0.00,,,0.00,WUHU216HW,2013-11-30 00:35:00,
2013-11-29 18:36:00,45.0,28.9,30.25,South,180,2.0,9.0,53,0.00,,,0.00,WUHU216HW,2013-11-30 00:36:00,
2013-11-29 18:37:00,45.0,28.9,30.25,SE,135,1.3,9.0,53,0.00,,,0.00,WUHU216HW,2013-11-30 00:37:00,
2013-11-29 18:38:00,45.0,28.9,30.25,SE,135,1.3,9.0,53,0.00,,,0.00,WUHU216HW,2013-11-30 00:38:00,
2013-11-29 18:40:00,45.0,28.9,30.26,SSW,203,1.8,8.6,53,0.00,,,0.00,WUHU216HW,2013-11-30 00:40:00,
2013-11-29 18:41:00,45.0,28.9,30.26,SSE,158,3.4,7.9,53,0.00,,,0.00,WUHU216HW,2013-11-30 00:41:00,
2013-11-29 18:42:00,44.8,28.7,30.26,SSE,158,2.9,7.9,53,0.00,,,0.00,WUHU216HW,2013-11-30 00:42:00,
2013-11-29 18:43:00,44.8,28.7,30.26,South,180,3.4,7.9,53,0.00,,,0.00,WUHU216HW,2013-11-30 00:43:00,
2013-11-29 18:45:00,44.8,28.7,30.26,South,180,5.6,7.9,53,0.00,,,0.00,WUHU216HW,2013-11-30 00:45:00,
2013-11-29 18:46:00,44.8,28.7,30.26,SE,135,1.6,7.9,53,0.00,,,0.00,WUHU216HW,2013-11-30 00:46:00,
2013-11-29 18:47:00,44.8,28.7,30.26,SSE,158,2.5,7.9,53,0.00,,,0.00,WUHU216HW,2013-11-30 00:47:00,
2013-11-29 18:48:00,44.8,28.7,30.26,SE,135,1.1,7.0,53,0.00,,,0.00,WUHU216HW,2013-11-30 00:48:00,
2013-11-29 18:49:00,44.6,28.5,30.26,South,180,3.8,7.0,53,0.00,,,0.00,WUHU216HW,2013-11-30 00:49:00,
2013-11-29 18:50:00,44.6,28.5,30.26,SW,225,3.1,7.0,53,0.00,,,0.00,WUHU216HW,2013-11-30 00:50:00,
2013-11-29 18:51:00,44.6,28.5,30.26,South,180,2.0,7.0,53,0.00,,,0.00,WUHU216HW,2013-11-30 00:51:00,
2013-11-29 18:52:00,44.5,28.4,30.26,ESE,113,2.5,7.0,53,0.00,,,0.00,WUHU216HW,2013-11-30 00:52:00,
2013-11-29 18:53:00,44.5,28.4,30.26,SSE,158,3.1,7.0,53,0.00,,,0.00,WUHU216HW,2013-11-30 00:53:00,
2013-11-29 18:54:00,44.3,28.2,30.26,SSE,158,5.1,7.0,53,0.00,,,0.00,WUHU216HW,2013-11-30 00:54:00,
2013-11-29 18:55:00,44.3,28.2,30.26,SSE,158,1.8,6.8,53,0.00,,,0.00,WUHU216HW,2013-11-30 00:55:00,
2013-11-29 18:57:00,44.3,28.2,30.26,SSE,158,2.9,6.8,53,0.00,,,0.00,WUHU216HW,2013-11-30 00:57:00,
2013-11-29 18:58:00,44.3,28.2,30.26,SSE,158,1.8,6.8,53,0.00,,,0.00,WUHU216HW,2013-11-30 00:58:00,
2013-11-29 18:59:00,44.3,28.2,30.26,SSW,203,2.5,6.8,53,0.00,,,0.00,WUHU216HW,2013-11-30 00:59:00,
2013-11-29 19:01:00,44.3,28.2,30.26,South,180,5.4,6.8,53,0.00,,,0.00,WUHU216HW,2013-11-30 01:01:00,
2013-11-29 19:02:00,44.1,28.0,30.26,South,180,3.8,7.0,53,0.00,,,0.00,WUHU216HW,2013-11-30 01:02:00,
2013-11-29 19:03:00,44.1,28.0,30.26,SSW,203,4.7,7.0,53,0.00,,,0.00,WUHU216HW,2013-11-30 01:03:00,
2013-11-29 19:04:00,44.1,28.0,30.26,South,180,2.0,7.0,53,0.00,,,0.00,WUHU216HW,2013-11-30 01:04:00,
2013-11-29 19:05:00,44.1,28.0,30.26,SSW,203,2.0,7.0,53,0.00,,,0.00,WUHU216HW,2013-11-30 01:05:00,
2013-11-29 19:06:00,44.1,28.0,30.26,South,180,4.7,7.0,53,0.00,,,0.00,WUHU216HW,2013-11-30 01:06:00,
2013-11-29 19:07:00,44.1,28.0,30.26,SSW,203,3.4,7.0,53,0.00,,,0.00,WUHU216HW,2013-11-30 01:07:00,
2013-11-29 19:08:00,43.9,27.9,30.26,South,180,2.9,7.0,53,0.00,,,0.00,WUHU216HW,2013-11-30 01:08:00,
2013-11-29 19:09:00,43.9,27.9,30.26,SSW,203,3.6,7.0,53,0.00,,,0.00,WUHU216HW,2013-11-30 01:09:00,
2013-11-29 19:10:00,43.9,27.9,30.26,SSE,158,2.2,7.0,53,0.00,,,0.00,WUHU216HW,2013-11-30 01:10:00,
2013-11-29 19:11:00,43.9,27.9,30.26,SSE,158,2.5,7.0,53,0.00,,,0.00,WUHU216HW,2013-11-30 01:11:00,
2013-11-29 19:13:00,43.9,27.9,30.26,SSW,203,2.5,6.4,53,0.00,,,0.00,WUHU216HW,2013-11-30 01:13:00,
2013-11-29 19:14:00,43.9,27.9,30.27,ESE,113,1.1,5.9,53,0.00,,,0.00,WUHU216HW,2013-11-30 01:14:00,
2013-11-29 19:15:00,43.9,27.9,30.27,SSW,203,2.2,5.9,53,0.00,,,0.00,WUHU216HW,2013-11-30 01:15:00,
2013-11-29 19:16:00,43.9,27.9,30.27,South,180,1.1,5.9,53,0.00,,,0.00,WUHU216HW,2013-11-30 01:16:00,
2013-11-29 19:18:00,43.7,27.7,30.26,South,180,2.5,5.9,53,0.00,,,0.00,WUHU216HW,2013-11-30 01:18:00,
2013-11-29 19:19:00,43.7,27.7,30.26,SSW,203,2.5,5.9,53,0.00,,,0.00,WUHU216HW,2013-11-30 01:19:00,
2013-11-29 19:21:00,43.6,27.6,30.26,SE,135,1.8,5.9,53,0.00,,,0.00,WUHU216HW,2013-11-30 01:21:00,
2013-11-29 19:23:00,43.6,27.6,30.26,SSE,158,1.1,5.9,53,0.00,,,0.00,WUHU216HW,2013-11-30 01:23:00,
2013-11-29 19:24:00,43.4,27.4,30.26,South,180,1.6,5.9,53,0.00,,,0.00,WUHU216HW,2013-11-30 01:24:00,
2013-11-29 19:26:00,43.2,27.2,30.26,SSE,158,1.6,4.3,53,0.00,,,0.00,WUHU216HW,2013-11-30 01:26:00,
2013-11-29 19:28:00,43.0,27.0,30.26,SE,135,1.1,3.4,53,0.00,,,0.00,WUHU216HW,2013-11-30 01:28:00,
2013-11-29 19:29:00,43.0,27.0,30.26,South,180,2.0,3.4,53,0.00,,,0.00,WUHU216HW,2013-11-30 01:29:00,
2013-11-29 19:31:00,42.8,26.8,30.26,SSW,203,0.0,3.4,53,0.00,,,0.00,WUHU216HW,2013-11-30 01:31:00,
2013-11-29 19:34:00,42.8,27.3,30.26,SSE,158,2.5,3.1,54,0.00,,,0.00,WUHU216HW,2013-11-30 01:34:00,
2013-11-29 19:35:00,42.8,27.3,30.26,SSE,158,4.7,5.9,54,0.00,,,0.00,WUHU216HW,2013-11-30 01:35:00,
2013-11-29 19:36:00,42.8,27.3,30.26,South,180,1.6,5.9,54,0.00,,,0.00,WUHU216HW,2013-11-30 01:36:00,
2013-11-29 19:39:00,42.8,27.3,30.26,SSW,203,0.4,5.9,54,0.00,,,0.00,WUHU216HW,2013-11-30 01:39:00,
2013-11-29 19:40:00,42.8,27.3,30.26,SSW,203,3.1,5.9,54,0.00,,,0.00,WUHU216HW,2013-11-30 01:40:00,
2013-11-29 19:41:00,42.8,27.3,30.26,SE,135,2.0,5.9,54,0.00,,,0.00,WUHU216HW,2013-11-30 01:41:00,
2013-11-29 19:42:00,42.8,27.3,30.26,SE,135,2.0,5.9,54,0.00,,,0.00,WUHU216HW,2013-11-30 01:42:00,
2013-11-29 19:44:00,42.8,27.3,30.26,SSW,203,0.4,6.1,54,0.00,,,0.00,WUHU216HW,2013-11-30 01:44:00,
2013-11-29 19:45:00,42.8,27.3,30.26,SSW,203,1.8,6.1,54,0.00,,,0.00,WUHU216HW,2013-11-30 01:45:00,
2013-11-29 19:46:00,42.8,27.3,30.26,SSE,158,4.7,6.1,54,0.00,,,0.00,WUHU216HW,2013-11-30 01:46:00,
2013-11-29 19:47:00,42.7,27.1,30.26,SSW,203,1.3,6.4,54,0.00,,,0.00,WUHU216HW,2013-11-30 01:47:00,
2013-11-29 19:48:00,42.7,27.1,30.26,SSW,203,1.3,6.4,54,0.00,,,0.00,WUHU216HW,2013-11-30 01:48:00,
2013-11-29 19:50:00,42.7,27.1,30.26,SSW,203,2.0,6.4,54,0.00,,,0.00,WUHU216HW,2013-11-30 01:50:00,
2013-11-29 19:53:00,42.7,27.1,30.26,South,180,4.0,6.4,54,0.00,,,0.00,WUHU216HW,2013-11-30 01:53:00,
2013-11-29 19:54:00,42.7,27.1,30.26,SSE,158,3.4,6.4,54,0.00,,,0.00,WUHU216HW,2013-11-30 01:54:00,
2013-11-29 19:55:00,42.7,27.1,30.26,South,180,0.7,6.4,54,0.00,,,0.00,WUHU216HW,2013-11-30 01:55:00,
2013-11-29 19:57:00,42.7,27.1,30.26,SE,135,0.0,6.4,54,0.00,,,0.00,WUHU216HW,2013-11-30 01:57:00,
2013-11-29 19:58:00,42.5,26.9,30.26,SW,225,0.0,5.0,54,0.00,,,0.00,WUHU216HW,2013-11-30 01:58:00,
2013-11-29 19:59:00,42.5,26.9,30.26,SSW,203,1.3,5.0,54,0.00,,,0.00,WUHU216HW,2013-11-30 01:59:00,
2013-11-29 20:00:00,42.5,26.9,30.26,ESE,113,0.0,4.8,54,0.00,,,0.00,WUHU216HW,2013-11-30 02:00:00,
2013-11-29 20:02:00,42.5,27.4,30.26,SSE,158,2.2,5.0,55,0.00,,,0.00,WUHU216HW,2013-11-30 02:02:00,
2013-11-29 20:03:00,42.5,27.4,30.26,SSE,158,0.9,5.0,55,0.00,,,0.00,WUHU216HW,2013-11-30 02:03:00,
2013-11-29 20:04:00,42.5,26.9,30.26,SSE,158,2.7,5.0,54,0.00,,,0.00,WUHU216HW,2013-11-30 02:04:00,
2013-11-29 20:05:00,42.5,26.9,30.26,South,180,1.8,5.0,54,0.00,,,0.00,WUHU216HW,2013-11-30 02:05:00,
2013-11-29 20:07:00,42.5,27.4,30.26,SE,135,0.0,5.0,55,0.00,,,0.00,WUHU216HW,2013-11-30 02:07:00,
2013-11-29 20:08:00,42.5,26.9,30.26,West,270,0.4,5.0,54,0.00,,,0.00,WUHU216HW,2013-11-30 02:08:00,
2013-11-29 20:09:00,42.3,27.2,30.26,SSE,158,0.4,5.0,55,0.00,,,0.00,WUHU216HW,2013-11-30 02:09:00,
2013-11-29 20:11:00,42.3,26.7,30.25,SE,135,0.0,5.0,54,0.00,,,0.00,WUHU216HW,2013-11-30 02:11:00,
2013-11-29 20:12:00,42.1,27.0,30.25,SSE,158,2.5,4.3,55,0.00,,,0.00,WUHU216HW,2013-11-30 02:12:00,
2013-11-29 20:13:00,42.1,27.0,30.25,SSE,158,2.0,4.3,55,0.00,,,0.00,WUHU216HW,2013-11-30 02:13:00,
2013-11-29 20:14:00,42.1,27.0,30.25,SSE,158,2.0,4.3,55,0.00,,,0.00,WUHU216HW,2013-11-30 02:14:00,
2013-11-29 20:16:00,41.8,26.7,30.26,SE,135,0.0,3.1,55,0.00,,,0.00,WUHU216HW,2013-11-30 02:16:00,
2013-11-29 20:18:00,41.8,26.7,30.25,South,180,0.0,3.1,55,0.00,,,0.00,WUHU216HW,2013-11-30 02:18:00,
2013-11-29 20:19:00,41.8,26.7,30.26,SW,225,0.0,3.1,55,0.00,,,0.00,WUHU216HW,2013-11-30 02:19:00,
2013-11-29 20:21:00,41.6,26.6,30.26,South,180,0.0,3.1,55,0.00,,,0.00,WUHU216HW,2013-11-30 02:21:00,
2013-11-29 20:23:00,41.6,27.0,30.26,South,180,0.0,2.5,56,0.00,,,0.00,WUHU216HW,2013-11-30 02:23:00,
2013-11-29 20:24:00,41.4,26.8,30.26,SW,225,0.0,1.4,56,0.00,,,0.00,WUHU216HW,2013-11-30 02:24:00,
2013-11-29 20:27:00,41.4,26.8,30.26,South,180,0.0,2.3,56,0.00,,,0.00,WUHU216HW,2013-11-30 02:27:00,
2013-11-29 20:28:00,41.4,26.8,30.26,South,180,2.9,3.6,56,0.00,,,0.00,WUHU216HW,2013-11-30 02:28:00,
2013-11-29 20:29:00,41.4,26.8,30.26,South,180,1.6,3.6,56,0.00,,,0.00,WUHU216HW,2013-11-30 02:29:00,
2013-11-29 20:32:00,41.2,26.7,30.26,SSW,203,0.0,3.6,56,0.00,,,0.00,WUHU216HW,2013-11-30 02:32:00,
2013-11-29 20:33:00,41.2,26.7,30.26,South,180,2.0,3.6,56,0.00,,,0.00,WUHU216HW,2013-11-30 02:33:00,
2013-11-29 20:34:00,41.2,26.7,30.26,SW,225,1.6,3.6,56,0.00,,,0.00,WUHU216HW,2013-11-30 02:34:00,
2013-11-29 20:35:00,41.2,26.7,30.26,SW,225,1.8,3.6,56,0.00,,,0.00,WUHU216HW,2013-11-30 02:35:00,
2013-11-29 20:37:00,41.0,26.5,30.26,SSW,203,0.0,3.6,56,0.00,,,0.00,WUHU216HW,2013-11-30 02:37:00,
2013-11-29 20:38:00,41.0,26.5,30.25,SSE,158,0.0,3.6,56,0.00,,,0.00,WUHU216HW,2013-11-30 02:38:00,
2013-11-29 20:39:00,41.0,26.5,30.26,South,180,0.0,2.8,56,0.00,,,0.00,WUHU216HW,2013-11-30 02:39:00,
2013-11-29 20:40:00,41.0,26.5,30.26,South,180,0.0,2.8,56,0.00,,,0.00,WUHU216HW,2013-11-30 02:40:00,
2013-11-29 20:42:00,40.9,26.3,30.25,SSW,203,0.0,2.8,56,0.00,,,0.00,WUHU216HW,2013-11-30 02:42:00,
2013-11-29 20:43:00,40.9,26.7,30.25,South,180,0.0,2.8,57,0.00,,,0.00,WUHU216HW,2013-11-30 02:43:00,
2013-11-29 20:44:00,40.9,26.7,30.26,SSW,203,0.0,2.3,57,0.00,,,0.00,WUHU216HW,2013-11-30 02:44:00,
2013-11-29 20:45:00,40.7,26.6,30.26,SSE,158,0.0,2.3,57,0.00,,,0.00,WUHU216HW,2013-11-30 02:45:00,
2013-11-29 20:48:00,40.7,26.6,30.25,SSW,203,0.9,2.5,57,0.00,,,0.00,WUHU216HW,2013-11-30 02:48:00,
2013-11-29 20:49:00,40.7,26.6,30.25,SSW,203,1.1,2.5,57,0.00,,,0.00,WUHU216HW,2013-11-30 02:49:00,
2013-11-29 20:50:00,40.7,26.6,30.25,SSW,203,1.8,2.5,57,0.00,,,0.00,WUHU216HW,2013-11-30 02:50:00,
2013-11-29 20:53:00,40.7,26.6,30.25,SSW,203,3.1,3.9,57,0.00,,,0.00,WUHU216HW,2013-11-30 02:53:00,
2013-11-29 20:54:00,40.5,26.4,30.25,SSW,203,0.9,3.9,57,0.00,,,0.00,WUHU216HW,2013-11-30 02:54:00,
2013-11-29 20:55:00,40.7,26.6,30.25,SSW,203,1.8,3.9,57,0.00,,,0.00,WUHU216HW,2013-11-30 02:55:00,
2013-11-29 20:58:00,40.5,26.4,30.25,SSW,203,1.3,3.9,57,0.00,,,0.00,WUHU216HW,2013-11-30 02:58:00,
2013-11-29 20:59:00,40.5,26.4,30.25,SSW,203,0.9,3.9,57,0.00,,,0.00,WUHU216HW,2013-11-30 02:59:00,
2013-11-29 21:00:00,40.5,26.8,30.25,South,180,1.8,3.9,58,0.00,,,0.00,WUHU216HW,2013-11-30 03:00:00,
2013-11-29 21:01:00,40.5,26.4,30.25,South,180,1.6,3.9,57,0.00,,,0.00,WUHU216HW,2013-11-30 03:01:00,
2013-11-29 21:03:00,40.5,26.8,30.25,SSE,158,2.5,3.6,58,0.00,,,0.00,WUHU216HW,2013-11-30 03:03:00,
2013-11-29 21:04:00,40.5,26.8,30.25,SSW,203,0.0,3.6,58,0.00,,,0.00,WUHU216HW,2013-11-30 03:04:00,
2013-11-29 21:05:00,40.5,26.8,30.25,South,180,2.7,3.6,58,0.00,,,0.00,WUHU216HW,2013-11-30 03:05:00,
2013-11-29 21:06:00,40.5,26.4,30.25,South,180,1.1,3.6,57,0.00,,,0.00,WUHU216HW,2013-11-30 03:06:00,
2013-11-29 21:09:00,40.3,26.6,30.25,SSW,203,0.0,3.6,58,0.00,,,0.00,WUHU216HW,2013-11-30 03:09:00,
2013-11-29 21:10:00,40.3,26.2,30.25,SSE,158,0.9,3.6,57,0.00,,,0.00,WUHU216HW,2013-11-30 03:10:00,
2013-11-29 21:11:00,40.3,26.2,30.25,SSW,203,0.0,3.6,57,0.00,,,0.00,WUHU216HW,2013-11-30 03:11:00,
2013-11-29 21:12:00,40.1,26.5,30.25,SSW,203,0.0,3.4,58,0.00,,,0.00,WUHU216HW,2013-11-30 03:12:00,
2013-11-29 21:14:00,40.0,26.3,30.25,South,180,0.0,3.4,58,0.00,,,0.00,WUHU216HW,2013-11-30 03:14:00,
2013-11-29 21:15:00,40.0,25.8,30.25,South,180,0.0,3.1,57,0.00,,,0.00,WUHU216HW,2013-11-30 03:15:00,
2013-11-29 21:16:00,40.0,26.3,30.25,South,180,0.0,1.4,58,0.00,,,0.00,WUHU216HW,2013-11-30 03:16:00,
2013-11-29 21:17:00,40.0,26.3,30.25,SSW,203,0.0,1.4,58,0.00,,,0.00,WUHU216HW,2013-11-30 03:17:00,
2013-11-29 21:20:00,39.8,26.1,30.25,South,180,0.0,0.5,58,0.00,,,0.00,WUHU216HW,2013-11-30 03:20:00,
2013-11-29 21:21:00,39.6,25.9,30.25,South,180,0.0,0.0,58,0.00,,,0.00,WUHU216HW,2013-11-30 03:21:00,
2013-11-29 21:22:00,39.6,25.9,30.25,South,180,0.0,0.0,58,0.00,,,0.00,WUHU216HW,2013-11-30 03:22:00,
2013-11-29 21:25:00,39.4,25.7,30.25,South,180,0.0,0.0,58,0.00,,,0.00,WUHU216HW,2013-11-30 03:25:00,
2013-11-29 21:26:00,39.2,25.6,30.25,SW,225,0.0,0.0,58,0.00,,,0.00,WUHU216HW,2013-11-30 03:26:00,
2013-11-29 21:27:00,39.2,25.6,30.25,SW,225,0.0,0.0,58,0.00,,,0.00,WUHU216HW,2013-11-30 03:27:00,
2013-11-29 21:30:00,39.2,26.0,30.25,SSW,203,2.0,2.5,59,0.00,,,0.00,WUHU216HW,2013-11-30 03:30:00,
2013-11-29 21:31:00,39.2,26.0,30.25,SSW,203,1.1,2.5,59,0.00,,,0.00,WUHU216HW,2013-11-30 03:31:00,
2013-11-29 21:32:00,39.2,26.0,30.25,SSW,203,0.0,2.5,59,0.00,,,0.00,WUHU216HW,2013-11-30 03:32:00,
2013-11-29 21:33:00,39.2,26.0,30.25,SSW,203,1.8,3.6,59,0.00,,,0.00,WUHU216HW,2013-11-30 03:33:00,
2013-11-29 21:35:00,39.2,26.0,30.25,SSW,203,1.6,3.6,59,0.00,,,0.00,WUHU216HW,2013-11-30 03:35:00,
2013-11-29 21:36:00,39.2,26.0,30.26,SW,225,0.9,3.6,59,0.00,,,0.00,WUHU216HW,2013-11-30 03:36:00,
2013-11-29 21:37:00,39.2,26.0,30.26,SW,225,0.9,3.6,59,0.00,,,0.00,WUHU216HW,2013-11-30 03:37:00,
2013-11-29 21:38:00,39.2,26.0,30.25,SSW,203,0.4,3.6,59,0.00,,,0.00,WUHU216HW,2013-11-30 03:38:00,
2013-11-29 21:41:00,39.1,25.8,30.25,WSW,248,0.4,3.6,59,0.00,,,0.00,WUHU216HW,2013-11-30 03:41:00,
2013-11-29 21:42:00,39.1,25.8,30.25,WSW,248,0.2,3.6,59,0.00,,,0.00,WUHU216HW,2013-11-30 03:42:00,
2013-11-29 21:43:00,39.1,25.8,30.25,WSW,248,0.4,3.1,59,0.00,,,0.00,WUHU216HW,2013-11-30 03:43:00,
2013-11-29 21:46:00,39.1,26.3,30.25,SSW,203,1.6,3.6,60,0.00,,,0.00,WUHU216HW,2013-11-30 03:46:00,
2013-11-29 21:47:00,39.1,26.3,30.25,South,180,1.3,3.6,60,0.00,,,0.00,WUHU216HW,2013-11-30 03:47:00,
2013-11-29 21:48:00,39.1,26.3,30.25,SSW,203,1.1,3.6,60,0.00,,,0.00,WUHU216HW,2013-11-30 03:48:00,
2013-11-29 21:51:00,38.9,25.8,30.25,SSW,203,0.9,3.6,59,0.00,,,0.00,WUHU216HW,2013-11-30 03:51:00,
2013-11-29 21:52:00,38.9,25.8,30.25,South,180,1.1,3.6,59,0.00,,,0.00,WUHU216HW,2013-11-30 03:52:00,
2013-11-29 21:53:00,38.9,25.8,30.25,SSW,203,0.9,3.6,59,0.00,,,0.00,WUHU216HW,2013-11-30 03:53:00,
2013-11-29 21:57:00,38.3,25.7,30.25,SSW,203,0.9,3.1,60,0.00,,,0.00,WUHU216HW,2013-11-30 03:57:00,
2013-11-29 21:58:00,38.2,25.5,30.25,SSW,203,1.3,3.1,60,0.00,,,0.00,WUHU216HW,2013-11-30 03:58:00,
2013-11-29 21:59:00,38.0,25.3,30.25,SSW,203,2.2,3.1,60,0.00,,,0.00,WUHU216HW,2013-11-30 03:59:00,
2013-11-29 22:02:00,37.4,24.8,30.25,SSE,158,0.7,2.8,60,0.00,,,0.00,WUHU216HW,2013-11-30 04:02:00,
2013-11-29 22:03:00,37.4,24.8,30.25,SSW,203,0.0,2.8,60,0.00,,,0.00,WUHU216HW,2013-11-30 04:03:00,
2013-11-29 22:04:00,37.3,24.7,30.25,SSW,203,0.0,2.8,60,0.00,,,0.00,WUHU216HW,2013-11-30 04:04:00,
2013-11-29 22:07:00,36.9,24.4,30.25,SSW,203,0.0,2.8,60,0.00,,,0.00,WUHU216HW,2013-11-30 04:07:00,
2013-11-29 22:08:00,37.1,24.9,30.25,SW,225,0.0,2.8,61,0.00,,,0.00,WUHU216HW,2013-11-30 04:08:00,
2013-11-29 22:09:00,37.1,25.3,30.25,SSW,203,0.0,2.3,62,0.00,,,0.00,WUHU216HW,2013-11-30 04:09:00,
2013-11-29 22:12:00,37.3,25.5,30.25,SSW,203,0.0,0.0,62,0.00,,,0.00,WUHU216HW,2013-11-30 04:12:00,
2013-11-29 22:13:00,37.3,25.5,30.25,SSW,203,0.0,0.0,62,0.00,,,0.00,WUHU216HW,2013-11-30 04:13:00,
2013-11-29 22:14:00,37.4,25.6,30.25,SSW,203,0.0,0.0,62,0.00,,,0.00,WUHU216HW,2013-11-30 04:14:00,
2013-11-29 22:17:00,37.4,25.2,30.25,SSW,203,0.0,0.0,61,0.00,,,0.00,WUHU216HW,2013-11-30 04:17:00,
2013-11-29 22:18:00,37.4,25.2,30.25,SSW,203,0.0,0.0,61,0.00,,,0.00,WUHU216HW,2013-11-30 04:18:00,
2013-11-29 22:19:00,37.4,25.2,30.25,SSW,203,0.0,0.0,61,0.00,,,0.00,WUHU216HW,2013-11-30 04:19:00,
2013-11-29 22:20:00,37.4,25.2,30.25,South,180,0.0,0.0,61,0.00,,,0.00,WUHU216HW,2013-11-30 04:20:00,
2013-11-29 22:23:00,37.6,25.4,30.24,South,180,0.9,3.1,61,0.00,,,0.00,WUHU216HW,2013-11-30 04:23:00,
2013-11-29 22:24:00,37.6,25.4,30.24,SSW,203,2.5,3.1,61,0.00,,,0.00,WUHU216HW,2013-11-30 04:24:00,
2013-11-29 22:25:00,37.6,25.4,30.24,South,180,2.2,3.1,61,0.00,,,0.00,WUHU216HW,2013-11-30 04:25:00,
2013-11-29 22:28:00,37.4,25.2,30.24,SSE,158,1.3,3.1,61,0.00,,,0.00,WUHU216HW,2013-11-30 04:28:00,
2013-11-29 22:29:00,37.4,25.2,30.24,SSW,203,0.0,3.1,61,0.00,,,0.00,WUHU216HW,2013-11-30 04:29:00,
2013-11-29 22:30:00,37.3,25.0,30.24,SW,225,0.0,3.1,61,0.00,,,0.00,WUHU216HW,2013-11-30 04:30:00,
2013-11-29 22:33:00,37.3,25.5,30.24,SW,225,0.0,3.1,62,0.00,,,0.00,WUHU216HW,2013-11-30 04:33:00,
2013-11-29 22:34:00,37.3,25.0,30.24,SSW,203,0.9,3.1,61,0.00,,,0.00,WUHU216HW,2013-11-30 04:34:00,
2013-11-29 22:35:00,37.3,25.0,30.24,SSW,203,0.0,2.8,61,0.00,,,0.00,WUHU216HW,2013-11-30 04:35:00,
2013-11-29 22:38:00,37.3,25.0,30.25,SSW,203,0.4,2.3,61,0.00,,,0.00,WUHU216HW,2013-11-30 04:38:00,
2013-11-29 22:39:00,37.4,25.2,30.24,SSW,203,0.0,2.3,61,0.00,,,0.00,WUHU216HW,2013-11-30 04:39:00,
2013-11-29 22:40:00,37.4,25.2,30.24,SSW,203,0.0,2.3,61,0.00,,,0.00,WUHU216HW,2013-11-30 04:40:00,
2013-11-29 22:43:00,37.8,25.9,30.24,SSW,203,0.0,2.3,62,0.00,,,0.00,WUHU216HW,2013-11-30 04:43:00,
2013-11-29 22:44:00,37.8,25.9,30.24,SSW,203,0.0,2.3,62,0.00,,,0.00,WUHU216HW,2013-11-30 04:44:00,
2013-11-29 22:45:00,37.8,25.9,30.24,SSW,203,0.0,2.3,62,0.00,,,0.00,WUHU216HW,2013-11-30 04:45:00,
2013-11-29 22:46:00,37.8,25.9,30.24,SSW,203,0.0,2.3,62,0.00,,,0.00,WUHU216HW,2013-11-30 04:46:00,
2013-11-29 22:48:00,37.8,25.6,30.24,SW,225,0.0,0.0,61,0.00,,,0.00,WUHU216HW,2013-11-30 04:48:00,
2013-11-29 22:49:00,37.8,25.6,30.24,SSW,203,0.0,0.0,61,0.00,,,0.00,WUHU216HW,2013-11-30 04:49:00,
2013-11-29 22:50:00,37.8,25.9,30.24,South,180,0.0,0.0,62,0.00,,,0.00,WUHU216HW,2013-11-30 04:50:00,
2013-11-29 22:51:00,37.8,25.6,30.24,South,180,0.0,0.0,61,0.00,,,0.00,WUHU216HW,2013-11-30 04:51:00,
2013-11-29 22:53:00,37.8,25.6,30.25,South,180,0.0,0.0,61,0.00,,,0.00,WUHU216HW,2013-11-30 04:53:00,
2013-11-29 22:54:00,37.8,25.6,30.25,SSW,203,0.0,0.0,61,0.00,,,0.00,WUHU216HW,2013-11-30 04:54:00,
2013-11-29 22:55:00,37.8,25.6,30.25,SSW,203,0.0,0.0,61,0.00,,,0.00,WUHU216HW,2013-11-30 04:55:00,
2013-11-29 22:56:00,37.8,25.6,30.25,South,180,0.0,0.0,61,0.00,,,0.00,WUHU216HW,2013-11-30 04:56:00,
2013-11-29 22:58:00,37.8,25.9,30.25,SSW,203,0.0,0.0,62,0.00,,,0.00,WUHU216HW,2013-11-30 04:58:00,
2013-11-29 22:59:00,37.8,25.6,30.25,SSW,203,0.0,0.0,61,0.00,,,0.00,WUHU216HW,2013-11-30 04:59:00,
2013-11-29 23:00:00,37.8,25.6,30.25,SSW,203,0.0,0.0,61,0.00,,,0.00,WUHU216HW,2013-11-30 05:00:00,
2013-11-29 23:01:00,37.8,25.6,30.25,South,180,0.0,0.0,61,0.00,,,0.00,WUHU216HW,2013-11-30 05:01:00,
2013-11-29 23:02:00,37.8,25.6,30.25,SSW,203,2.0,3.1,61,0.00,,,0.00,WUHU216HW,2013-11-30 05:02:00,
2013-11-29 23:06:00,38.0,25.8,30.25,South,180,2.0,3.1,61,0.00,,,0.00,WUHU216HW,2013-11-30 05:06:00,
2013-11-29 23:07:00,38.0,25.8,30.24,SSE,158,1.1,3.1,61,0.00,,,0.00,WUHU216HW,2013-11-30 05:07:00,
2013-11-29 23:11:00,37.8,25.6,30.24,South,180,0.0,3.1,61,0.00,,,0.00,WUHU216HW,2013-11-30 05:11:00,
2013-11-29 23:12:00,37.8,25.6,30.24,SSW,203,0.0,3.1,61,0.00,,,0.00,WUHU216HW,2013-11-30 05:12:00,
2013-11-29 23:16:00,37.6,25.4,30.24,SSE,158,0.0,3.1,61,0.00,,,0.00,WUHU216HW,2013-11-30 05:16:00,
2013-11-29 23:17:00,37.6,25.4,30.24,SSE,158,1.6,3.1,61,0.00,,,0.00,WUHU216HW,2013-11-30 05:17:00,
2013-11-29 23:21:00,37.4,25.2,30.24,South,180,0.4,3.1,61,0.00,,,0.00,WUHU216HW,2013-11-30 05:21:00,
2013-11-29 23:22:00,37.4,25.2,30.24,SSW,203,2.2,3.1,61,0.00,,,0.00,WUHU216HW,2013-11-30 05:22:00,
2013-11-29 23:26:00,37.6,25.4,30.24,South,180,1.8,3.1,61,0.00,,,0.00,WUHU216HW,2013-11-30 05:26:00,
2013-11-29 23:27:00,37.6,25.4,30.24,South,180,3.6,4.5,61,0.00,,,0.00,WUHU216HW,2013-11-30 05:27:00,
2013-11-29 23:28:00,37.6,25.7,30.24,SSE,158,2.5,4.5,62,0.00,,,0.00,WUHU216HW,2013-11-30 05:28:00,
2013-11-29 23:31:00,37.8,25.9,30.24,SSW,203,1.8,4.5,62,0.00,,,0.00,WUHU216HW,2013-11-30 05:31:00,
2013-11-29 23:32:00,37.8,25.9,30.24,SSW,203,4.0,5.0,62,0.00,,,0.00,WUHU216HW,2013-11-30 05:32:00,
2013-11-29 23:33:00,37.8,25.9,30.24,SSW,203,4.0,5.0,62,0.00,,,0.00,WUHU216HW,2013-11-30 05:33:00,
2013-11-29 23:34:00,38.0,26.1,30.24,South,180,2.2,5.0,62,0.00,,,0.00,WUHU216HW,2013-11-30 05:34:00,
2013-11-29 23:36:00,38.0,26.1,30.24,SSW,203,2.7,5.0,62,0.00,,,0.00,WUHU216HW,2013-11-30 05:36:00,
2013-11-29 23:38:00,38.2,26.3,30.24,South,180,4.5,6.8,62,0.00,,,0.00,WUHU216HW,2013-11-30 05:38:00,
2013-11-29 23:39:00,38.2,26.3,30.24,SSW,203,1.8,6.8,62,0.00,,,0.00,WUHU216HW,2013-11-30 05:39:00,
2013-11-29 23:41:00,38.2,25.8,30.24,SSW,203,2.5,6.8,61,0.00,,,0.00,WUHU216HW,2013-11-30 05:41:00,
2013-11-29 23:43:00,38.3,26.0,30.23,SE,135,2.5,6.8,61,0.00,,,0.00,WUHU216HW,2013-11-30 05:43:00,
2013-11-29 23:44:00,38.2,25.8,30.23,SSW,203,2.0,6.8,61,0.00,,,0.00,WUHU216HW,2013-11-30 05:44:00,
2013-11-29 23:45:00,38.2,25.8,30.23,SSW,203,2.0,6.8,61,0.00,,,0.00,WUHU216HW,2013-11-30 05:45:00,
2013-11-29 23:46:00,38.2,25.8,30.24,South,180,1.8,6.8,61,0.00,,,0.00,WUHU216HW,2013-11-30 05:46:00,
2013-11-29 23:48:00,38.2,25.8,30.23,SSW,203,2.5,5.4,61,0.00,,,0.00,WUHU216HW,2013-11-30 05:48:00,
2013-11-29 23:49:00,38.2,25.8,30.23,SSE,158,3.6,5.4,61,0.00,,,0.00,WUHU216HW,2013-11-30 05:49:00,
2013-11-29 23:50:00,38.2,25.8,30.23,SSW,203,3.1,5.4,61,0.00,,,0.00,WUHU216HW,2013-11-30 05:50:00,
2013-11-29 23:51:00,38.2,25.8,30.23,SSW,203,1.8,5.4,61,0.00,,,0.00,WUHU216HW,2013-11-30 05:51:00,
2013-11-29 23:53:00,38.2,25.8,30.23,South,180,2.5,5.9,61,0.00,,,0.00,WUHU216HW,2013-11-30 05:53:00,
2013-11-29 23:54:00,38.2,25.8,30.23,SSE,158,1.8,5.9,61,0.00,,,0.00,WUHU216HW,2013-11-30 05:54:00,
2013-11-29 23:55:00,38.2,25.8,30.23,South,180,2.5,5.9,61,0.00,,,0.00,WUHU216HW,2013-11-30 05:55:00,
2013-11-29 23:56:00,38.2,25.8,30.23,South,180,3.1,5.9,61,0.00,,,0.00,WUHU216HW,2013-11-30 05:56:00,
2013-11-29 23:58:00,38.2,25.8,30.23,SSW,203,0.4,6.8,61,0.00,,,0.00,WUHU216HW,2013-11-30 05:58:00,